FW6434 Weather Reports


time (UTC)temp
C
wind
direction
speed
KPH
gust
KPH
rain 1hr
cm
rain 24hr
cm
rain mn
cm
humidity
%
barometer
mb
20260831220552 15 198 0.0 0.0 0.00 0.00 0.00 97 1015.6
20260831220535 15 198 0.0 0.0 0.00 0.00 0.00 97 1015.8
20260831220519 15 198 0.0 0.0 0.00 0.00 0.00 97 1015.8
20260831220254 15 198 0.0 0.0 0.00 0.00 0.00 97 1015.7
20260831220154 15 198 0.0 0.0 0.00 0.00 0.00 97 1015.9
20260831220053 15 198 0.0 0.0 0.00 0.00 0.00 97 1015.6
20260831215953 15 198 0.0 0.0 0.00 0.00 0.00 97 1015.7
20260831215852 15 198 0.0 0.0 0.00 0.00 0.00 97 1015.7
20260831215753 15 198 0.0 0.0 0.00 0.00 0.00 97 1015.6
20260831215654 15 198 0.0 0.0 0.00 0.00 0.00 97 1015.7
20260831215553 15 198 0.0 0.0 0.00 0.00 0.00 97 1015.6
20260831215453 15 198 0.0 0.0 0.00 0.00 0.00 97 1015.5
20260831215434 15 198 0.0 0.0 0.00 0.00 0.00 97 1015.7
20260831215408 15 198 0.0 0.0 0.00 0.00 0.00 97 1015.6
20260831215054 15 198 0.0 0.0 0.00 0.00 0.00 97 1015.9
20260831214953 15 198 0.0 0.0 0.00 0.00 0.00 96 1015.6
20260831214851 15 198 0.0 0.0 0.00 0.00 0.00 96 1015.8
20260831214722 15 198 0.0 0.0 0.00 0.00 0.00 96 1015.6
20260831214649 15 198 0.0 0.0 0.00 0.00 0.00 96 1015.7
20260831214549 15 198 0.0 0.0 0.00 0.00 0.00 96 1015.6
20260831214526 16 198 0.0 0.0 0.00 0.00 0.00 96 1015.7
20260831214511 16 198 0.0 0.0 0.00 0.00 0.00 96 1015.6
20260831214221 16 198 0.0 0.0 0.00 0.00 0.00 96 1015.5
20260831214149 16 198 0.0 0.0 0.00 0.00 0.00 96 1015.6
20260831214049 16 198 0.0 0.0 0.00 0.00 0.00 96 1015.7
20260831213949 16 198 0.0 0.0 0.00 0.00 0.00 96 1015.9
20260831213850 16 198 0.0 0.0 0.00 0.00 0.00 96 1015.7
20260831213721 16 198 0.0 0.0 0.00 0.00 0.00 96 1015.6
20260831213649 16 198 0.0 0.0 0.00 0.00 0.00 96 1015.6
20260831213550 16 198 0.0 0.0 0.00 0.00 0.00 96 1015.8
20260831213450 16 198 0.0 0.0 0.00 0.00 0.00 96 1015.6
20260831213349 16 198 0.0 0.0 0.00 0.00 0.00 96 1015.8
20260831213235 16 198 0.0 0.0 0.00 0.00 0.00 96 1015.5
20260831213230 16 200 0.0 0.0 0.00 0.00 0.00 94 1015.0
20260831213222 16 198 0.0 0.0 0.00 0.00 0.00 96 1015.9
20260831213215 16 198 0.0 0.0 0.00 0.00 0.00 96 1015.3
20260831213208 16 198 0.0 0.0 0.00 0.00 0.00 96 1015.9
20260831213154 16 198 0.0 0.0 0.00 0.00 0.00 96 1015.6
20260831213138 16 198 0.0 0.0 0.00 0.00 0.00 96 1015.7
20260831212917 16 196 0.0 0.0 0.00 0.00 0.00 96 1015.4
20260831212911 16 200 0.0 0.0 0.00 0.00 0.00 94 1015.4
20260831212904 16 198 0.0 0.0 0.00 0.00 0.00 96 1015.8
20260831212832 16 198 0.0 0.0 0.00 0.00 0.00 96 1015.7
20260831212823 16 198 0.0 0.0 0.00 0.00 0.00 96 1015.7
20260831212808 16 198 0.0 0.0 0.00 0.00 0.00 96 1015.9
20260831212752 16 198 0.0 0.0 0.00 0.00 0.00 96 1015.4
20260831212736 16 198 0.0 0.0 0.00 0.00 0.00 96 1015.7
20260831212721 16 198 0.0 0.0 0.00 0.00 0.00 96 1015.3
20260831212453 16 198 0.0 0.0 0.00 0.00 0.00 96 1015.3
20260831212437 16 198 0.0 0.0 0.00 0.00 0.00 96 1015.2
20260831212422 16 198 0.0 0.0 0.00 0.00 0.00 96 1015.3
20260831212407 16 198 0.0 0.0 0.00 0.00 0.00 96 1015.5
20260831212336 16 198 0.0 0.0 0.00 0.00 0.00 96 1015.4
20260831212327 16 198 0.0 0.0 0.00 0.00 0.00 96 1015.2
20260831212311 16 198 0.0 0.0 0.00 0.00 0.00 96 1015.5
20260831212256 16 198 0.0 0.0 0.00 0.00 0.00 96 1015.5
20260831212242 16 198 0.0 0.0 0.00 0.00 0.00 96 1015.5
20260831212227 16 198 0.0 0.0 0.00 0.00 0.00 96 1015.5
20260831211519 16 198 0.0 0.0 0.00 0.00 0.00 96 1015.5
20260831211503 16 197 0.0 0.0 0.00 0.00 0.00 96 1015.3
20260831210754 16 198 0.0 0.0 0.00 0.00 0.00 96 1015.4
20260831210532 17 200 0.0 0.0 0.00 0.00 0.00 92 1015.1
20260831210522 16 198 0.0 0.0 0.00 0.00 0.00 96 1015.4
20260831210506 16 198 0.0 0.0 0.00 0.00 0.00 95 1015.3
20260831210438 16 198 0.0 0.0 0.00 0.00 0.00 95 1015.7
20260831210207 16 198 0.0 0.0 0.00 0.00 0.00 95 1015.6
20260831210152 16 200 0.0 0.0 0.00 0.00 0.00 95 1015.5
20260831210136 16 200 0.0 0.0 0.00 0.00 0.00 95 1015.4
20260831210121 16 200 0.0 0.0 0.00 0.00 0.00 95 1015.5
20260831210105 16 200 0.0 0.0 0.00 0.00 0.00 94 1015.5
20260831210047 16 200 0.0 0.0 0.00 0.00 0.00 94 1015.6
20260831210032 16 200 0.0 0.0 0.00 0.00 0.00 94 1015.6
20260831210016 16 200 0.0 0.0 0.00 0.00 0.00 94 1015.6
20260831205726 16 200 0.0 0.0 0.00 0.00 0.00 94 1015.4
20260831205717 16 200 0.0 0.0 0.00 0.00 0.00 94 1015.6
20260831205222 16 200 0.0 0.0 0.00 0.00 0.00 94 1015.5
20260831205206 16 200 0.0 0.0 0.00 0.00 0.00 94 1015.4
20260831204938 16 200 0.0 0.0 0.00 0.00 0.00 94 1015.4
20260831204922 16 200 0.0 0.0 0.00 0.00 0.00 94 1015.3
20260831204907 16 200 0.0 0.0 0.00 0.00 0.00 94 1015.2
20260831204851 16 200 0.0 0.0 0.00 0.00 0.00 94 1015.4
20260831204835 16 200 0.0 0.0 0.00 0.00 0.00 94 1015.0
20260831204608 16 200 0.0 0.0 0.00 0.00 0.00 94 1015.2
20260831204553 16 200 0.0 0.0 0.00 0.00 0.00 94 1015.2
20260831204538 16 200 0.0 0.0 0.00 0.00 0.00 94 1015.2
20260831204521 17 200 0.0 0.0 0.00 0.00 0.00 93 1015.3
20260831204450 17 200 0.0 0.0 0.00 0.00 0.00 93 1015.1
20260831204441 17 200 0.0 0.0 0.00 0.00 0.00 93 1015.2
20260831204425 17 200 0.0 0.0 0.00 0.00 0.00 93 1015.1
20260831203713 17 200 0.0 0.0 0.00 0.00 0.00 93 1015.1
20260831203704 17 200 0.0 0.0 0.00 0.00 0.00 93 1015.1
20260831203648 17 200 0.0 0.0 0.00 0.00 0.00 93 1015.0
20260831203632 17 200 0.0 0.0 0.00 0.00 0.00 93 1015.0
20260831203616 17 200 0.0 0.0 0.00 0.00 0.00 93 1015.1
20260831203341 17 200 0.0 0.0 0.00 0.00 0.00 92 1015.1
20260831203332 17 200 0.0 0.0 0.00 0.00 0.00 92 1014.9
20260831203056 17 200 0.0 0.0 0.00 0.00 0.00 92 1015.1
20260831203040 17 200 0.0 0.0 0.00 0.00 0.00 92 1015.3
20260831202807 17 200 0.0 0.0 0.00 0.00 0.00 92 1015.2
20260831202539 17 200 0.0 0.0 0.00 0.00 0.00 92 1015.1
20260831202522 17 200 0.0 0.0 0.00 0.00 0.00 92 1015.0
20260831202506 17 200 0.0 0.0 0.00 0.00 0.00 92 1015.3
20260831202450 17 200 0.0 0.0 0.00 0.00 0.00 92 1015.1
20260831202221 17 200 0.0 0.0 0.00 0.00 0.00 92 1015.1
20260831202204 17 200 0.0 0.0 0.00 0.00 0.00 92 1015.1
20260831202149 17 200 0.0 0.0 0.00 0.00 0.00 92 1015.0
20260831201859 17 200 0.0 0.0 0.00 0.00 0.00 92 1015.0
20260831201849 17 200 0.0 0.0 0.00 0.00 0.00 92 1015.2
20260831201833 17 200 0.0 0.0 0.00 0.00 0.00 92 1015.2
20260831201818 17 200 0.0 0.0 0.00 0.00 0.00 92 1015.1
20260831201802 17 200 0.0 0.0 0.00 0.00 0.00 92 1015.0
20260831201747 17 200 0.0 0.0 0.00 0.00 0.00 92 1015.2
20260831201732 17 200 0.0 0.0 0.00 0.00 0.00 91 1015.2
20260831201024 17 200 0.0 0.0 0.00 0.00 0.00 91 1014.9
20260831200955 17 200 0.0 0.0 0.00 0.00 0.00 91 1014.9
20260831200945 17 200 0.0 0.0 0.00 0.00 0.00 91 1015.1
20260831200010 17 200 0.0 0.0 0.00 0.00 0.00 91 1014.9
20260831195739 17 200 0.0 0.0 0.00 0.00 0.00 91 1015.0
20260831195501 17 200 0.0 0.0 0.00 0.00 0.00 91 1014.8
20260831195216 17 200 0.0 0.0 0.00 0.00 0.00 91 1015.0
20260831195143 17 200 0.0 0.0 0.00 0.00 0.00 91 1014.8
20260831195044 17 200 0.0 0.0 0.00 0.00 0.00 90 1014.9
20260831194943 17 200 0.0 0.0 0.00 0.00 0.00 90 1015.1
20260831194844 17 200 0.0 0.0 0.00 0.00 0.00 90 1015.1
20260831194715 17 200 0.0 0.0 0.00 0.00 0.00 90 1015.1
20260831194643 17 200 0.0 0.0 0.00 0.00 0.00 90 1014.9
20260831194543 17 200 0.0 0.0 0.00 0.00 0.00 90 1014.8
20260831194520 17 200 0.0 0.0 0.00 0.00 0.00 90 1015.0
20260831194503 17 200 0.0 0.0 0.00 0.00 0.00 90 1014.8
20260831194216 18 200 0.0 0.0 0.00 0.00 0.00 90 1014.9
20260831194158 18 200 0.0 0.0 0.00 0.00 0.00 90 1015.0
20260831194154 18 200 0.0 0.0 0.00 0.00 0.00 89 1015.0
20260831194149 18 200 0.0 0.0 0.00 0.00 0.00 90 1015.1
20260831194133 18 200 0.0 0.0 0.00 0.00 0.00 90 1014.8
20260831194117 18 200 0.0 0.0 0.00 0.00 0.00 90 1014.7
20260831194101 18 200 0.0 0.0 0.00 0.00 0.00 90 1014.9
20260831194046 18 200 0.0 0.0 0.00 0.00 0.00 90 1015.0
20260831193817 18 200 0.0 0.0 0.00 0.00 0.00 90 1014.9
20260831193802 18 200 0.0 0.0 0.00 0.00 0.00 90 1014.9
20260831193746 18 200 0.0 0.0 0.00 0.00 0.00 90 1014.9
20260831193731 18 200 0.0 0.0 0.00 0.00 0.00 90 1014.7
20260831193458 18 200 0.0 0.0 0.00 0.00 0.00 90 1014.9
20260831193229 18 200 0.0 0.0 0.00 0.00 0.00 89 1015.1
20260831193213 18 200 0.0 0.0 0.00 0.00 0.00 89 1015.0
20260831193157 18 200 0.0 0.0 0.00 0.00 0.00 89 1014.9
20260831192643 18 200 0.0 0.0 0.00 0.00 0.00 89 1014.8
20260831192620 18 200 0.0 0.0 0.00 0.00 0.00 89 1014.9
20260831192604 18 200 0.0 0.0 0.00 0.00 0.00 89 1015.1
20260831192547 18 200 0.0 0.0 0.00 0.00 0.00 89 1014.9
20260831192313 18 200 0.0 0.0 0.00 0.00 0.00 89 1014.8
20260831192305 18 200 0.0 0.0 0.00 0.00 0.00 89 1015.0
20260831192011 18 200 0.0 0.0 0.00 0.00 0.00 89 1014.9
20260831192004 18 200 0.0 0.0 0.00 0.00 0.00 89 1014.8
20260831191948 18 200 0.0 0.0 0.00 0.00 0.00 89 1014.9
20260831191933 18 200 0.0 0.0 0.00 0.00 0.00 89 1014.9
20260831191642 18 200 0.0 0.0 0.00 0.00 0.00 89 1015.0
20260831191618 18 200 0.0 0.0 0.00 0.00 0.00 89 1015.0
20260831191602 18 200 0.0 0.0 0.00 0.00 0.00 88 1015.0
20260831191215 18 200 0.0 0.0 0.00 0.00 0.00 88 1015.0
20260831191143 18 200 0.0 0.0 0.00 0.00 0.00 88 1014.9
20260831191043 18 200 0.0 0.0 0.00 0.00 0.00 88 1014.9
20260831190943 18 200 0.0 0.0 0.00 0.00 0.00 88 1015.0
20260831190842 18 200 0.0 0.0 0.00 0.00 0.00 88 1014.6
20260831190812 18 200 0.0 0.0 0.00 0.00 0.00 88 1014.8
20260831190803 18 200 0.0 0.0 0.00 0.00 0.00 88 1014.9
20260831190443 18 200 0.0 0.0 0.00 0.00 0.00 87 1014.9
20260831190343 18 200 0.0 0.0 0.00 0.00 0.00 87 1015.0
20260831190215 18 200 0.0 0.0 0.00 0.00 0.00 87 1014.9
20260831190144 18 200 0.0 0.0 0.00 0.00 0.00 87 1014.9
20260831190119 18 200 0.0 0.0 0.00 0.00 0.00 87 1014.9
20260831185715 18 200 0.0 0.0 0.00 0.00 0.00 87 1014.8
20260831185643 19 200 0.0 0.0 0.00 0.00 0.00 87 1014.9
20260831185542 19 200 0.0 0.0 0.00 0.00 0.00 87 1014.8
20260831185444 19 200 0.0 0.0 0.00 0.00 0.00 87 1014.8
20260831185343 19 199 0.0 0.0 0.00 0.00 0.00 86 1014.8
20260831185231 19 199 0.0 0.0 0.00 0.00 0.00 86 1014.9
20260831185222 19 199 0.0 0.0 0.00 0.00 0.00 86 1014.6
20260831185206 19 199 0.0 0.0 0.00 0.00 0.00 86 1014.8
20260831185149 19 198 0.0 0.0 0.00 0.00 0.00 86 1014.7
20260831185133 19 198 0.0 0.0 0.00 0.00 0.00 86 1014.7
20260831184857 19 198 0.0 0.0 0.00 0.00 0.00 86 1014.8
20260831184543 19 198 0.0 0.0 0.00 0.00 0.00 86 1014.7
20260831184443 19 198 0.0 0.0 0.00 0.00 0.00 86 1014.7
20260831184343 19 190 0.0 0.0 0.00 0.00 0.00 86 1014.6
20260831184215 19 201 0.0 0.0 0.00 0.00 0.00 86 1014.5
20260831184143 19 201 0.0 0.0 0.00 0.00 0.00 85 1014.8
20260831184043 19 201 0.0 0.0 0.00 0.00 0.00 85 1014.8
20260831183943 19 201 0.0 0.0 0.00 0.00 0.00 85 1014.8
20260831183844 19 201 0.0 0.0 0.00 0.00 0.00 85 1014.7
20260831183808 19 201 0.0 0.0 0.00 0.00 0.00 85 1014.6
20260831183759 19 200 0.0 0.0 0.00 0.00 0.00 85 1014.6
20260831183742 19 200 0.0 0.0 0.00 0.00 0.00 85 1014.6
20260831183726 20 200 0.0 0.0 0.00 0.00 0.00 85 1014.9
20260831183215 20 199 0.0 1.6 0.00 0.00 0.00 84 1014.7
20260831183143 20 199 0.0 1.6 0.00 0.00 0.00 84 1014.8
20260831183044 20 200 0.0 1.6 0.00 0.00 0.00 84 1014.8
20260831182944 20 204 0.0 1.6 0.00 0.00 0.00 84 1014.6
20260831182843 20 199 0.0 1.6 0.00 0.00 0.00 84 1014.8
20260831182744 20 199 0.0 1.6 0.00 0.00 0.00 84 1014.8
20260831182715 20 196 0.0 1.6 0.00 0.00 0.00 84 1014.8
20260831182643 20 196 0.0 1.6 0.00 0.00 0.00 84 1014.8
20260831182542 20 196 0.0 1.6 0.00 0.00 0.00 84 1014.7
20260831182443 20 200 0.0 1.6 0.00 0.00 0.00 84 1014.7
20260831182343 20 200 0.0 1.6 0.00 0.00 0.00 84 1015.0
20260831182243 20 200 0.0 3.2 0.00 0.00 0.00 84 1014.8
20260831182215 20 199 0.0 3.2 0.00 0.00 0.00 84 1014.8
20260831182143 20 202 0.0 3.2 0.00 0.00 0.00 84 1014.7
20260831182043 20 200 0.0 3.2 0.00 0.00 0.00 84 1014.7
20260831181944 20 200 0.0 3.2 0.00 0.00 0.00 83 1014.8
20260831181844 20 198 0.0 3.2 0.00 0.00 0.00 83 1014.7
20260831181809 20 199 0.0 0.0 0.00 0.00 0.00 82 1014.9
20260831181803 20 201 0.0 3.2 0.00 0.00 0.00 83 1014.8
20260831181748 20 200 0.0 3.2 0.00 0.00 0.00 83 1014.8
20260831181738 20 201 0.0 3.2 0.00 0.00 0.00 83 1014.7
20260831181723 20 183 0.0 3.2 0.00 0.00 0.00 83 1014.7
20260831181708 20 194 0.0 3.2 0.00 0.00 0.00 83 1014.8
20260831181652 20 191 0.0 3.2 0.00 0.00 0.00 82 1014.7
20260831181133 20 199 0.0 0.0 0.00 0.00 0.00 82 1014.6
20260831181030 20 196 0.0 0.0 0.00 0.00 0.00 82 1014.6
20260831180931 20 196 0.0 0.0 0.00 0.00 0.00 81 1014.6
20260831180916 20 196 0.0 0.0 0.00 0.00 0.00 81 1014.3
20260831180846 20 196 0.0 0.0 0.00 0.00 0.00 81 1014.5
20260831180520 20 204 0.0 0.0 0.00 0.00 0.00 81 1014.2
20260831180421 20 196 0.0 0.0 0.00 0.00 0.00 81 1014.5
20260831180319 20 198 0.0 1.6 0.00 0.00 0.00 80 1014.2
20260831180218 20 196 0.0 1.6 0.00 0.00 0.00 80 1014.2
20260831180119 21 196 0.0 1.6 0.00 0.00 0.00 80 1014.2
20260831180019 21 193 0.0 1.6 0.00 0.00 0.00 80 1014.5
20260831175920 21 194 0.0 1.6 0.00 0.00 0.00 80 1014.3
20260831175819 21 193 0.0 1.6 0.00 0.00 0.00 80 1014.2
20260831175719 21 190 0.0 1.6 0.00 0.00 0.00 79 1014.2
20260831175619 21 193 0.0 1.6 0.00 0.00 0.00 79 1014.5
20260831175520 21 192 0.0 1.6 0.00 0.00 0.00 79 1014.2
20260831175510 21 193 0.0 1.6 0.00 0.00 0.00 78 1014.1
20260831175501 21 198 0.0 1.6 0.00 0.00 0.00 79 1014.2
20260831175445 21 192 0.0 1.6 0.00 0.00 0.00 78 1014.1
20260831175428 21 193 0.0 1.6 0.00 0.00 0.00 78 1014.1
20260831175120 21 194 0.0 1.6 0.00 0.00 0.00 78 1014.2
20260831175020 21 196 0.0 1.6 0.00 0.00 0.00 78 1014.1
20260831174919 21 193 0.0 1.6 0.00 0.00 0.00 78 1014.0
20260831174819 21 193 0.0 1.6 0.00 0.00 0.00 78 1014.1
20260831174720 21 194 0.0 1.6 0.00 0.00 0.00 78 1013.9
20260831174619 21 199 0.0 1.6 0.00 0.00 0.00 78 1014.0
20260831174556 21 192 0.0 1.6 0.00 0.00 0.00 78 1014.1
20260831174540 21 184 0.0 1.6 0.00 0.00 0.00 78 1014.3
20260831174219 21 194 0.0 3.2 0.00 0.00 0.00 78 1014.3
20260831174120 21 199 0.0 3.2 0.00 0.00 0.00 78 1014.0
20260831174019 21 209 0.0 3.2 0.00 0.00 0.00 78 1014.1
20260831173919 21 184 0.0 3.2 0.00 0.00 0.00 78 1013.9
20260831173820 21 190 0.0 3.2 0.00 0.00 0.00 78 1013.9
20260831173755 21 198 0.0 3.2 0.00 0.00 0.00 78 1014.1
20260831173739 21 194 0.0 3.2 0.00 0.00 0.00 79 1014.0
20260831173419 21 202 1.6 3.2 0.00 0.00 0.00 79 1014.0
20260831173402 21 168 1.6 3.2 0.00 0.00 0.00 79 1014.0
20260831173340 21 176 0.0 1.6 0.00 0.00 0.00 79 1013.8
20260831173019 21 202 0.0 1.6 0.00 0.00 0.00 79 1013.7
20260831172919 21 179 0.0 1.6 0.00 0.00 0.00 79 1013.7
20260831172854 21 199 0.0 1.6 0.00 0.00 0.00 80 1014.1
20260831172830 21 193 0.0 1.6 0.00 0.00 0.00 80 1014.0
20260831172814 21 175 0.0 1.6 0.00 0.00 0.00 80 1014.0
20260831172758 21 187 0.0 1.6 0.00 0.00 0.00 79 1013.8
20260831172743 21 193 0.0 1.6 0.00 0.00 0.00 79 1013.7
20260831172726 22 192 0.0 1.6 0.00 0.00 0.00 79 1013.8
20260831172459 22 198 0.0 1.6 0.00 0.00 0.00 79 1013.7
20260831172003 22 194 0.0 1.6 0.00 0.00 0.00 79 1013.8
20260831171948 22 192 0.0 1.6 0.00 0.00 0.00 79 1013.8
20260831171719 22 196 0.0 1.6 0.00 0.00 0.00 79 1013.6
20260831171620 22 192 0.0 1.6 0.00 0.00 0.00 79 1013.8
20260831171519 22 192 0.0 1.6 0.00 0.00 0.00 79 1013.8
20260831171419 22 192 0.0 1.6 0.00 0.00 0.00 78 1013.6
20260831171320 22 192 0.0 1.6 0.00 0.00 0.00 78 1014.0
20260831171220 22 192 0.0 1.6 0.00 0.00 0.00 78 1013.8
20260831171120 22 194 0.0 1.6 0.00 0.00 0.00 78 1013.8
20260831171107 22 198 0.0 1.6 0.00 0.00 0.00 77 1013.7
20260831171058 22 191 0.0 1.6 0.00 0.00 0.00 78 1013.7
20260831171042 22 192 0.0 1.6 0.00 0.00 0.00 77 1013.7
20260831171026 22 173 0.0 1.6 0.00 0.00 0.00 77 1013.9
20260831171007 22 198 0.0 1.6 0.00 0.00 0.00 77 1013.7
20260831170740 22 191 0.0 1.6 0.00 0.00 0.00 77 1013.7
20260831170432 22 194 0.0 1.6 0.00 0.00 0.00 77 1013.8
20260831170416 22 207 0.0 1.6 0.00 0.00 0.00 77 1013.7
20260831170353 22 198 0.0 1.6 0.00 0.00 0.00 77 1013.8
20260831170019 22 192 0.0 3.2 0.00 0.00 0.00 76 1013.6
20260831165919 22 187 0.0 3.2 0.00 0.00 0.00 76 1013.9
20260831165819 22 197 0.0 3.2 0.00 0.00 0.00 76 1013.7
20260831165719 22 197 0.0 3.2 0.00 0.00 0.00 76 1013.8
20260831165632 22 192 0.0 3.2 0.00 0.00 0.00 76 1013.9
20260831165616 22 160 0.0 3.2 0.00 0.00 0.00 76 1013.8
20260831165547 22 193 0.0 3.2 0.00 0.00 0.00 76 1013.9
20260831165311 23 194 0.0 0.0 0.00 0.00 0.00 75 1013.8
20260831165255 23 188 0.0 3.2 0.00 0.00 0.00 75 1013.6
20260831165239 23 198 0.0 1.6 0.00 0.00 0.00 75 1014.0
20260831165003 23 199 0.0 1.6 0.00 0.00 0.00 75 1013.6
20260831164948 23 192 0.0 1.6 0.00 0.00 0.00 76 1013.7
20260831164929 23 194 0.0 0.0 0.00 0.00 0.00 75 1013.8
20260831164209 24 199 0.0 4.8 0.00 0.00 0.00 74 1013.6
20260831164202 24 201 0.0 3.2 0.00 0.00 0.00 72 1013.7
20260831164157 24 195 0.0 3.2 0.00 0.00 0.00 73 1013.6
20260831164153 24 191 0.0 1.6 0.00 0.00 0.00 73 1013.7
20260831164146 23 194 0.0 3.2 0.00 0.00 0.00 76 1013.5
20260831164130 23 191 0.0 3.2 0.00 0.00 0.00 75 1013.7
20260831164114 23 194 0.0 3.2 0.00 0.00 0.00 75 1013.7
20260831163850 23 196 0.0 3.2 0.00 0.00 0.00 75 1013.6
20260831163835 23 199 0.0 3.2 0.00 0.00 0.00 75 1013.9
20260831163825 23 196 0.0 3.2 0.00 0.00 0.00 75 1013.9
20260831163809 23 196 0.0 3.2 0.00 0.00 0.00 75 1013.7
20260831163754 23 196 0.0 3.2 0.00 0.00 0.00 75 1013.6
20260831163738 23 201 0.0 3.2 0.00 0.00 0.00 75 1013.6
20260831163721 23 201 0.0 3.2 0.00 0.00 0.00 75 1013.7
20260831163449 23 228 3.2 3.2 0.00 0.00 0.00 75 1013.6
20260831163434 23 192 0.0 1.6 0.00 0.00 0.00 75 1013.7
20260831163158 23 177 0.0 1.6 0.00 0.00 0.00 75 1013.5
20260831163143 23 200 0.0 1.6 0.00 0.00 0.00 75 1013.8
20260831162915 23 194 0.0 1.6 0.00 0.00 0.00 75 1013.5
20260831162859 23 191 0.0 1.6 0.00 0.00 0.00 75 1013.6
20260831162842 23 131 0.0 1.6 0.00 0.00 0.00 75 1013.7
20260831162827 23 177 0.0 1.6 0.00 0.00 0.00 75 1013.7
20260831162551 23 191 0.0 3.2 0.00 0.00 0.00 75 1013.6
20260831162325 23 183 0.0 3.2 0.00 0.00 0.00 75 1013.6
20260831162308 23 199 0.0 3.2 0.00 0.00 0.00 76 1013.6
20260831162251 23 199 0.0 3.2 0.00 0.00 0.00 75 1013.6
20260831162235 23 200 0.0 3.2 0.00 0.00 0.00 76 1013.6
20260831161744 23 191 0.0 3.2 0.00 0.00 0.00 75 1013.6
20260831161727 23 196 0.0 3.2 0.00 0.00 0.00 75 1013.8
20260831161450 23 196 0.0 1.6 0.00 0.00 0.00 75 1013.6
20260831161425 23 200 0.0 1.6 0.00 0.00 0.00 75 1013.7
20260831161410 23 194 0.0 1.6 0.00 0.00 0.00 75 1013.5
20260831161353 23 200 0.0 1.6 0.00 0.00 0.00 75 1013.5
20260831161115 23 200 0.0 1.6 0.00 0.00 0.00 74 1013.6
20260831161059 23 195 0.0 1.6 0.00 0.00 0.00 74 1013.5
20260831160830 23 178 0.0 1.6 0.00 0.00 0.00 75 1013.7
20260831160813 23 199 0.0 1.6 0.00 0.00 0.00 75 1013.7
20260831160537 23 204 0.0 1.6 0.00 0.00 0.00 75 1013.6
20260831160311 24 199 0.0 1.6 0.00 0.00 0.00 75 1013.6
20260831160254 24 157 1.6 1.6 0.00 0.00 0.00 75 1013.6
20260831160238 24 191 0.0 1.6 0.00 0.00 0.00 74 1013.6
20260831160002 24 199 0.0 1.6 0.00 0.00 0.00 74 1013.7
20260831155731 24 201 0.0 4.8 0.00 0.00 0.00 74 1013.6
20260831155721 25 199 0.0 3.2 0.00 0.00 0.00 72 1013.5
20260831155717 24 198 0.0 3.2 0.00 0.00 0.00 73 1013.7
20260831155707 24 168 0.0 4.8 0.00 0.00 0.00 74 1013.6
20260831155650 24 194 0.0 4.8 0.00 0.00 0.00 73 1013.6
20260831155634 24 191 0.0 4.8 0.00 0.00 0.00 73 1013.7
20260831155619 24 213 0.0 4.8 0.00 0.00 0.00 73 1013.4
20260831155602 24 194 0.0 4.8 0.00 0.00 0.00 74 1013.8
20260831155556 24 194 0.0 4.8 0.00 0.00 0.00 73 1013.8
20260831155540 24 154 0.0 4.8 0.00 0.00 0.00 73 1013.5
20260831155524 24 192 0.0 4.8 0.00 0.00 0.00 73 1013.5
20260831155507 24 191 0.0 4.8 0.00 0.00 0.00 73 1013.7
20260831155220 24 190 0.0 3.2 0.00 0.00 0.00 73 1013.8
20260831155204 24 166 1.6 3.2 0.00 0.00 0.00 73 1013.7
20260831155148 24 190 0.0 3.2 0.00 0.00 0.00 72 1013.7
20260831155133 24 192 0.0 3.2 0.00 0.00 0.00 72 1013.6
20260831155118 24 197 0.0 3.2 0.00 0.00 0.00 72 1013.6
20260831155102 24 192 0.0 3.2 0.00 0.00 0.00 72 1013.6
20260831155055 24 197 0.0 3.2 0.00 0.00 0.00 72 1013.6
20260831155040 24 205 0.0 3.2 0.00 0.00 0.00 72 1013.8
20260831155023 24 198 0.0 3.2 0.00 0.00 0.00 72 1013.7
20260831155008 24 196 0.0 3.2 0.00 0.00 0.00 72 1013.6
20260831154952 24 202 0.0 3.2 0.00 0.00 0.00 72 1013.8
20260831154937 24 191 0.0 3.2 0.00 0.00 0.00 72 1013.6
20260831154928 24 187 0.0 3.2 0.00 0.00 0.00 72 1013.6
20260831154652 25 118 1.6 3.2 0.00 0.00 0.00 72 1013.6
20260831154635 25 187 0.0 1.6 0.00 0.00 0.00 72 1013.9
20260831154619 25 186 0.0 1.6 0.00 0.00 0.00 72 1013.7
20260831154603 25 192 0.0 1.6 0.00 0.00 0.00 72 1013.8
20260831154115 24 182 0.0 1.6 0.00 0.00 0.00 72 1013.9
20260831154059 24 201 0.0 1.6 0.00 0.00 0.00 72 1013.7
20260831154043 24 194 0.0 3.2 0.00 0.00 0.00 72 1014.0
20260831153814 24 193 0.0 3.2 0.00 0.00 0.00 72 1013.7
20260831153539 24 194 0.0 3.2 0.00 0.00 0.00 72 1013.8
20260831153523 24 198 0.0 3.2 0.00 0.00 0.00 73 1013.8
20260831153507 24 186 0.0 3.2 0.00 0.00 0.00 73 1013.6
20260831153018 24 196 0.0 3.2 0.00 0.00 0.00 73 1013.7
20260831153002 24 192 0.0 3.2 0.00 0.00 0.00 72 1013.7
20260831152947 24 182 0.0 3.2 0.00 0.00 0.00 72 1013.8
20260831152930 24 199 0.0 1.6 0.00 0.00 0.00 73 1013.7
20260831152443 24 191 0.0 1.6 0.00 0.00 0.00 73 1013.8
20260831152428 24 189 0.0 1.6 0.00 0.00 0.00 72 1013.7
20260831152412 24 202 0.0 1.6 0.00 0.00 0.00 72 1013.7
20260831152342 24 202 0.0 1.6 0.00 0.00 0.00 72 1013.7
20260831152113 24 195 0.0 0.0 0.00 0.00 0.00 71 1013.9
20260831152057 24 194 0.0 0.0 0.00 0.00 0.00 72 1013.7
20260831152040 24 191 0.0 1.6 0.00 0.00 0.00 71 1013.8
20260831151807 25 202 0.0 1.6 0.00 0.00 0.00 72 1013.8
20260831151315 25 198 0.0 1.6 0.00 0.00 0.00 71 1013.8
20260831151300 25 196 0.0 1.6 0.00 0.00 0.00 71 1013.6
20260831151245 25 196 0.0 1.6 0.00 0.00 0.00 72 1013.7
20260831151017 25 196 0.0 1.6 0.00 0.00 0.00 72 1013.7
20260831151000 25 196 0.0 1.6 0.00 0.00 0.00 72 1013.7
20260831150722 25 200 0.0 1.6 0.00 0.00 0.00 72 1013.8
20260831150705 25 198 0.0 3.2 0.00 0.00 0.00 72 1013.5
20260831150435 25 199 0.0 3.2 0.00 0.00 0.00 72 1013.7
20260831145937 24 195 0.0 3.2 0.00 0.00 0.00 73 1013.7
20260831145450 24 200 0.0 3.2 0.00 0.00 0.00 73 1013.7
20260831145433 24 197 0.0 3.2 0.00 0.00 0.00 73 1013.8
20260831145155 25 199 0.0 1.6 0.00 0.00 0.00 73 1013.5
20260831144922 25 195 0.0 1.6 0.00 0.00 0.00 73 1013.6
20260831144605 25 198 0.0 1.6 0.00 0.00 0.00 73 1013.5
20260831144552 25 196 0.0 1.6 0.00 0.00 0.00 73 1013.6
20260831144542 25 193 0.0 1.6 0.00 0.00 0.00 73 1013.7
20260831144526 25 194 0.0 1.6 0.00 0.00 0.00 73 1013.9
20260831144510 25 196 0.0 1.6 0.00 0.00 0.00 72 1013.6
20260831144243 25 197 0.0 1.6 0.00 0.00 0.00 73 1013.9
20260831144226 25 201 0.0 1.6 0.00 0.00 0.00 73 1013.6
20260831143906 25 170 0.0 1.6 0.00 0.00 0.00 74 1013.7
20260831143805 25 193 0.0 0.0 0.00 0.00 0.00 73 1013.8
20260831143739 25 193 0.0 0.0 0.00 0.00 0.00 73 1013.8
20260831143705 25 191 0.0 0.0 0.00 0.00 0.00 73 1013.7
20260831143605 24 196 0.0 1.6 0.00 0.00 0.00 73 1013.7
20260831143506 24 196 0.0 1.6 0.00 0.00 0.00 74 1013.7
20260831143406 24 199 0.0 1.6 0.00 0.00 0.00 74 1013.9
20260831143306 24 194 0.0 1.6 0.00 0.00 0.00 74 1013.6
20260831143237 24 192 0.0 1.6 0.00 0.00 0.00 74 1013.6
20260831143205 24 192 0.0 1.6 0.00 0.00 0.00 74 1013.9
20260831143106 24 191 0.0 1.6 0.00 0.00 0.00 75 1013.7
20260831143031 24 185 0.0 1.6 0.00 0.00 0.00 74 1013.7
20260831143017 24 199 0.0 1.6 0.00 0.00 0.00 75 1013.7
20260831142746 25 196 0.0 1.6 0.00 0.00 0.00 74 1013.6
20260831142740 24 199 0.0 1.6 0.00 0.00 0.00 75 1013.8
20260831142728 24 198 0.0 1.6 0.00 0.00 0.00 74 1013.6
20260831142711 25 196 0.0 1.6 0.00 0.00 0.00 75 1013.7
20260831142656 25 196 0.0 1.6 0.00 0.00 0.00 75 1013.8
20260831142639 25 197 0.0 1.6 0.00 0.00 0.00 74 1013.8
20260831142624 25 197 0.0 1.6 0.00 0.00 0.00 74 1013.6
20260831142054 25 202 0.0 4.8 0.00 0.00 0.00 73 1013.6
20260831141953 24 196 0.0 4.8 0.00 0.00 0.00 73 1013.8
20260831141853 24 198 0.0 4.8 0.00 0.00 0.00 73 1013.8
20260831141753 24 196 0.0 4.8 0.00 0.00 0.00 73 1013.7
20260831141737 24 203 0.0 4.8 0.00 0.00 0.00 73 1013.7
20260831141652 24 192 0.0 4.8 0.00 0.00 0.00 73 1013.8
20260831141635 24 191 0.0 4.8 0.00 0.00 0.00 74 1013.8
20260831141614 24 191 0.0 4.8 0.00 0.00 0.00 74 1013.6
20260831141254 24 203 1.6 4.8 0.00 0.00 0.00 74 1013.8
20260831141237 24 204 0.0 0.0 0.00 0.00 0.00 74 1013.8
20260831141225 24 197 0.0 0.0 0.00 0.00 0.00 74 1013.8
20260831141208 24 197 0.0 0.0 0.00 0.00 0.00 75 1013.7
20260831141152 24 218 0.0 1.6 0.00 0.00 0.00 74 1013.7
20260831141137 24 193 0.0 1.6 0.00 0.00 0.00 74 1013.7
20260831141108 24 199 0.0 1.6 0.00 0.00 0.00 73 1013.8
20260831140835 25 196 0.0 1.6 0.00 0.00 0.00 73 1013.8
20260831140255 25 197 0.0 1.6 0.00 0.00 0.00 73 1013.5
20260831140242 25 196 0.0 1.6 0.00 0.00 0.00 73 1013.5
20260831140232 25 188 0.0 1.6 0.00 0.00 0.00 73 1013.7
20260831140215 25 196 0.0 3.2 0.00 0.00 0.00 73 1013.8
20260831140159 25 204 0.0 3.2 0.00 0.00 0.00 73 1013.7
20260831140143 25 199 0.0 3.2 0.00 0.00 0.00 73 1013.7
20260831135910 25 206 0.0 3.2 0.00 0.00 0.00 72 1013.7
20260831135554 25 198 0.0 3.2 0.00 0.00 0.00 73 1013.6
20260831135452 25 200 0.0 3.2 0.00 0.00 0.00 73 1014.0
20260831135355 25 199 0.0 3.2 0.00 0.00 0.00 73 1013.9
20260831135306 25 115 0.0 3.2 0.00 0.00 0.00 73 1013.6
20260831135250 25 196 0.0 3.2 0.00 0.00 0.00 73 1013.6
20260831135154 25 193 0.0 3.2 0.00 0.00 0.00 72 1013.6
20260831135052 25 197 0.0 3.2 0.00 0.00 0.00 72 1013.7
20260831134955 25 192 0.0 3.2 0.00 0.00 0.00 72 1013.7
20260831134853 25 192 0.0 3.2 0.00 0.00 0.00 72 1013.7
20260831134825 25 190 0.0 3.2 0.00 0.00 0.00 72 1013.8
20260831134813 25 199 0.0 3.2 0.00 0.00 0.00 72 1013.8
20260831134453 25 196 0.0 3.2 0.00 0.00 0.00 72 1013.8
20260831134353 25 180 0.0 3.2 0.00 0.00 0.00 72 1013.8
20260831134254 25 200 0.0 3.2 0.00 0.00 0.00 72 1013.8
20260831134237 25 204 0.0 3.2 0.00 0.00 0.00 72 1013.8
20260831134154 25 171 3.2 3.2 0.00 0.00 0.00 72 1013.7
20260831134054 25 206 0.0 1.6 0.00 0.00 0.00 72 1013.7
20260831133953 25 202 0.0 1.6 0.00 0.00 0.00 72 1013.7
20260831133854 25 201 0.0 1.6 0.00 0.00 0.00 72 1013.9
20260831133753 25 187 0.0 1.6 0.00 0.00 0.00 73 1013.8
20260831133737 25 254 1.6 1.6 0.00 0.00 0.00 73 1013.8
20260831133653 25 196 0.0 1.6 0.00 0.00 0.00 71 1013.9
20260831133553 25 80 0.0 1.6 0.00 0.00 0.00 73 1013.5
20260831133453 25 207 0.0 1.6 0.00 0.00 0.00 73 1013.8
20260831133436 25 202 0.0 1.6 0.00 0.00 0.00 73 1013.8
20260831133420 25 201 0.0 1.6 0.00 0.00 0.00 74 1013.9
20260831133409 25 201 0.0 1.6 0.00 0.00 0.00 74 1013.9
20260831133053 25 208 0.0 1.6 0.00 0.00 0.00 74 1013.9
20260831132959 25 201 0.0 1.6 0.00 0.00 0.00 75 1013.9
20260831132854 24 203 0.0 1.6 0.00 0.00 0.00 76 1014.0
20260831132753 24 201 0.0 1.6 0.00 0.00 0.00 76 1013.9
20260831132737 24 201 0.0 1.6 0.00 0.00 0.00 75 1013.9
20260831132653 24 195 0.0 1.6 0.00 0.00 0.00 75 1014.0
20260831132626 24 199 0.0 1.6 0.00 0.00 0.00 76 1014.0
20260831132610 24 200 0.0 1.6 0.00 0.00 0.00 76 1014.0
20260831132554 24 191 0.0 1.6 0.00 0.00 0.00 76 1013.9
20260831132539 24 207 0.0 1.6 0.00 0.00 0.00 77 1014.0
20260831132528 24 193 0.0 3.2 0.00 0.00 0.00 77 1014.0
20260831131954 23 198 0.0 3.2 0.00 0.00 0.00 76 1013.9
20260831131854 23 195 0.0 3.2 0.00 0.00 0.00 76 1014.1
20260831131753 23 188 0.0 3.2 0.00 0.00 0.00 76 1014.1
20260831131737 23 181 1.6 3.2 0.00 0.00 0.00 76 1014.1
20260831131654 23 188 0.0 3.2 0.00 0.00 0.00 76 1014.0
20260831131553 23 202 0.0 3.2 0.00 0.00 0.00 76 1014.0
20260831131455 23 201 0.0 3.2 0.00 0.00 0.00 76 1013.9
20260831131354 23 147 0.0 3.2 0.00 0.00 0.00 75 1013.9
20260831131254 23 195 1.6 3.2 0.00 0.00 0.00 76 1014.0
20260831131237 23 203 0.0 3.2 0.00 0.00 0.00 76 1014.0
20260831131153 23 209 0.0 3.2 0.00 0.00 0.00 76 1014.0
20260831131053 23 201 0.0 3.2 0.00 0.00 0.00 77 1014.1
20260831130953 23 193 0.0 3.2 0.00 0.00 0.00 77 1013.9
20260831130854 23 89 1.6 3.2 0.00 0.00 0.00 77 1014.0
20260831130831 23 201 0.0 3.2 0.00 0.00 0.00 76 1014.0
20260831130820 23 201 0.0 3.2 0.00 0.00 0.00 77 1014.0
20260831130807 23 205 1.6 1.6 0.00 0.00 0.00 77 1014.0
20260831130751 23 198 0.0 1.6 0.00 0.00 0.00 76 1014.0
20260831130734 23 199 0.0 1.6 0.00 0.00 0.00 76 1013.8
20260831130240 23 189 0.0 1.6 0.00 0.00 0.00 75 1014.0
20260831130230 23 195 0.0 1.6 0.00 0.00 0.00 75 1013.9
20260831130214 23 154 0.0 1.6 0.00 0.00 0.00 75 1014.0
20260831130158 23 195 0.0 1.6 0.00 0.00 0.00 74 1014.2
20260831125922 23 195 0.0 1.6 0.00 0.00 0.00 74 1013.9
20260831125910 23 198 0.0 1.6 0.00 0.00 0.00 74 1013.9
20260831125624 23 200 0.0 3.2 0.00 0.00 0.00 74 1014.2
20260831125608 23 202 0.0 3.2 0.00 0.00 0.00 74 1014.0
20260831125551 23 198 0.0 3.2 0.00 0.00 0.00 74 1014.0
20260831125536 23 198 0.0 3.2 0.00 0.00 0.00 73 1014.0
20260831125523 23 200 0.0 3.2 0.00 0.00 0.00 73 1014.0
20260831125513 23 201 0.0 3.2 0.00 0.00 0.00 73 1014.0
20260831125456 23 159 0.0 3.2 0.00 0.00 0.00 73 1014.0
20260831124948 23 205 0.0 4.8 0.00 0.00 0.00 72 1014.0
20260831124714 24 181 1.6 4.8 0.00 0.00 0.00 72 1013.8
20260831124354 24 197 0.0 4.8 0.00 0.00 0.00 73 1013.9
20260831124253 24 198 0.0 4.8 0.00 0.00 0.00 73 1014.0
20260831124241 24 194 0.0 4.8 0.00 0.00 0.00 73 1014.0
20260831124231 24 199 0.0 4.8 0.00 0.00 0.00 72 1014.0
20260831124215 24 196 1.6 4.8 0.00 0.00 0.00 72 1013.9
20260831123853 24 209 3.2 4.8 0.00 0.00 0.00 72 1013.9
20260831123754 24 194 0.0 3.2 0.00 0.00 0.00 72 1013.8
20260831123738 24 195 0.0 3.2 0.00 0.00 0.00 72 1013.8
20260831123653 24 197 0.0 3.2 0.00 0.00 0.00 72 1013.9
20260831123553 24 197 0.0 3.2 0.00 0.00 0.00 72 1013.8
20260831123454 24 251 0.0 3.2 0.00 0.00 0.00 73 1013.8
20260831123437 24 200 0.0 3.2 0.00 0.00 0.00 72 1013.9
20260831123420 24 196 0.0 3.2 0.00 0.00 0.00 72 1013.9
20260831123408 24 196 0.0 3.2 0.00 0.00 0.00 72 1013.9
20260831123054 24 198 0.0 3.2 0.00 0.00 0.00 72 1013.8
20260831122952 24 103 0.0 3.2 0.00 0.00 0.00 72 1014.2
20260831122854 25 260 3.2 3.2 0.00 0.00 0.00 72 1014.0
20260831122738 25 192 0.0 1.6 0.00 0.00 0.00 72 1013.9
20260831122653 25 202 0.0 1.6 0.00 0.00 0.00 72 1014.1
20260831122554 25 204 0.0 1.6 0.00 0.00 0.00 72 1014.0
20260831122454 25 185 0.0 1.6 0.00 0.00 0.00 72 1013.9
20260831122353 25 197 0.0 1.6 0.00 0.00 0.00 71 1014.0
20260831122253 25 198 0.0 1.6 0.00 0.00 0.00 71 1014.1
20260831122238 25 198 0.0 1.6 0.00 0.00 0.00 71 1014.1
20260831122155 25 199 0.0 1.6 0.00 0.00 0.00 71 1013.9
20260831122053 25 196 0.0 1.6 0.00 0.00 0.00 71 1013.9
20260831121954 25 197 0.0 1.6 0.00 0.00 0.00 71 1013.8
20260831121852 25 198 0.0 1.6 0.00 0.00 0.00 71 1013.9
20260831121753 25 196 0.0 1.6 0.00 0.00 0.00 71 1013.6
20260831121738 25 198 0.0 1.6 0.00 0.00 0.00 71 1013.6
20260831121653 25 200 0.0 1.6 0.00 0.00 0.00 71 1013.9
20260831121627 24 209 1.6 1.6 0.00 0.00 0.00 71 1013.7
20260831121619 24 166 0.0 1.6 0.00 0.00 0.00 71 1013.8
20260831121604 24 196 0.0 1.6 0.00 0.00 0.00 71 1013.9
20260831121548 24 198 0.0 1.6 0.00 0.00 0.00 71 1013.9
20260831121531 24 196 0.0 1.6 0.00 0.00 0.00 71 1013.7
20260831121306 24 199 1.6 1.6 0.00 0.00 0.00 72 1013.8
20260831121250 24 196 0.0 1.6 0.00 0.00 0.00 73 1014.0
20260831121015 24 202 0.0 1.6 0.00 0.00 0.00 72 1013.7
20260831120959 24 201 0.0 1.6 0.00 0.00 0.00 73 1014.0
20260831120943 24 201 0.0 1.6 0.00 0.00 0.00 73 1014.0
20260831120934 24 197 0.0 1.6 0.00 0.00 0.00 74 1013.9
20260831120353 24 201 0.0 1.6 0.00 0.00 0.00 76 1013.9
20260831120225 24 202 0.0 1.6 0.00 0.00 0.00 76 1014.0
20260831120154 23 203 0.0 1.6 0.00 0.00 0.00 76 1014.0
20260831120130 23 203 0.0 1.6 0.00 0.00 0.00 76 1013.9
20260831120114 23 206 0.0 1.6 0.00 0.00 0.00 76 1013.9
20260831120058 23 199 0.0 1.6 0.00 0.00 0.00 77 1013.8
20260831120042 23 199 0.0 1.6 0.00 0.00 0.00 76 1014.0
20260831120027 23 203 0.0 1.6 0.00 0.00 0.00 76 1014.0
20260831115454 23 199 0.0 1.6 0.00 0.00 0.00 75 1013.7
20260831115353 23 199 0.0 1.6 0.00 0.00 0.00 75 1013.8
20260831115253 23 202 0.0 1.6 0.00 0.00 0.00 75 1013.8
20260831115225 23 202 0.0 1.6 0.00 0.00 0.00 75 1013.8
20260831115155 23 202 0.0 1.6 0.00 0.00 0.00 75 1013.8
20260831115055 23 200 0.0 0.0 0.00 0.00 0.00 75 1013.8
20260831114958 23 200 0.0 0.0 0.00 0.00 0.00 75 1014.1
20260831114942 23 201 0.0 0.0 0.00 0.00 0.00 76 1013.7
20260831114926 23 201 0.0 0.0 0.00 0.00 0.00 77 1013.9
20260831114910 23 201 0.0 0.0 0.00 0.00 0.00 77 1013.9
20260831114645 23 199 0.0 1.6 0.00 0.00 0.00 79 1013.8
20260831114453 23 200 0.0 1.6 0.00 0.00 0.00 78 1013.7
20260831114353 23 200 0.0 1.6 0.00 0.00 0.00 79 1013.8
20260831114255 23 200 0.0 1.6 0.00 0.00 0.00 80 1013.8
20260831114225 23 200 0.0 1.6 0.00 0.00 0.00 80 1013.8
20260831114154 23 200 0.0 1.6 0.00 0.00 0.00 80 1013.6
20260831114133 22 198 0.0 1.6 0.00 0.00 0.00 82 1013.7
20260831114129 22 194 0.0 1.6 0.00 0.00 0.00 84 1013.7
20260831114121 23 202 0.0 1.6 0.00 0.00 0.00 80 1013.8
20260831114105 23 202 0.0 1.6 0.00 0.00 0.00 80 1013.8
20260831114050 23 202 0.0 1.6 0.00 0.00 0.00 79 1013.8
20260831114034 23 202 0.0 1.6 0.00 0.00 0.00 80 1013.7
20260831114019 22 202 0.0 1.6 0.00 0.00 0.00 80 1013.7
20260831114010 22 202 0.0 1.6 0.00 0.00 0.00 80 1013.5
20260831113953 22 199 0.0 1.6 0.00 0.00 0.00 81 1013.7
20260831113717 22 201 0.0 1.6 0.00 0.00 0.00 81 1013.8
20260831113702 22 199 0.0 1.6 0.00 0.00 0.00 82 1013.7
20260831113434 22 196 0.0 1.6 0.00 0.00 0.00 82 1013.5
20260831113158 22 202 0.0 1.6 0.00 0.00 0.00 83 1013.6
20260831113143 22 199 1.6 1.6 0.00 0.00 0.00 84 1013.6
20260831113127 22 195 0.0 1.6 0.00 0.00 0.00 84 1013.7
20260831112614 23 200 0.0 0.0 0.00 0.00 0.00 82 1013.8
20260831112607 22 195 0.0 0.0 0.00 0.00 0.00 83 1013.7
20260831112551 22 195 0.0 0.0 0.00 0.00 0.00 83 1013.6
20260831112535 22 204 0.0 0.0 0.00 0.00 0.00 83 1013.5
20260831112518 22 196 0.0 0.0 0.00 0.00 0.00 82 1013.6
20260831112505 22 195 0.0 0.0 0.00 0.00 0.00 82 1013.6
20260831112456 22 195 0.0 0.0 0.00 0.00 0.00 82 1013.6
20260831112441 22 195 0.0 0.0 0.00 0.00 0.00 82 1013.6
20260831112424 22 195 0.0 0.0 0.00 0.00 0.00 82 1013.6
20260831111653 23 200 0.0 0.0 0.00 0.00 0.00 82 1013.7
20260831111629 23 200 0.0 0.0 0.00 0.00 0.00 81 1013.6
20260831111614 23 200 0.0 0.0 0.00 0.00 0.00 81 1013.8
20260831111254 23 200 0.0 0.0 0.00 0.00 0.00 80 1013.8
20260831111225 23 200 0.0 0.0 0.00 0.00 0.00 80 1013.8
20260831111154 23 200 0.0 0.0 0.00 0.00 0.00 80 1014.0
20260831111053 23 200 0.0 0.0 0.00 0.00 0.00 80 1013.8
20260831111032 23 200 0.0 0.0 0.00 0.00 0.00 80 1013.9
20260831111016 23 200 0.0 0.0 0.00 0.00 0.00 80 1013.8
20260831111000 23 200 0.0 0.0 0.00 0.00 0.00 80 1013.7
20260831110943 23 200 0.0 0.0 0.00 0.00 0.00 80 1013.7
20260831110714 23 200 0.0 0.0 0.00 0.00 0.00 79 1014.1
20260831110354 23 200 0.0 0.0 0.00 0.00 0.00 80 1014.1
20260831110253 23 200 0.0 0.0 0.00 0.00 0.00 80 1014.1
20260831110225 23 200 0.0 0.0 0.00 0.00 0.00 80 1014.1
20260831110154 23 200 0.0 0.0 0.00 0.00 0.00 80 1013.9
20260831110054 23 200 0.0 0.0 0.00 0.00 0.00 80 1014.0
20260831110043 23 200 0.0 0.0 0.00 0.00 0.00 79 1013.9
20260831110032 23 200 0.0 0.0 0.00 0.00 0.00 80 1014.1
20260831110015 23 200 0.0 0.0 0.00 0.00 0.00 80 1014.1
20260831110000 23 200 0.0 0.0 0.00 0.00 0.00 80 1014.0
20260831105735 23 200 0.0 0.0 0.00 0.00 0.00 79 1014.0
20260831105725 23 200 0.0 0.0 0.00 0.00 0.00 80 1014.0
20260831105709 23 200 0.0 0.0 0.00 0.00 0.00 80 1014.1
20260831105652 23 200 0.0 0.0 0.00 0.00 0.00 79 1014.2
20260831105637 23 200 0.0 0.0 0.00 0.00 0.00 79 1014.1
20260831105608 23 200 0.0 0.0 0.00 0.00 0.00 79 1014.0
20260831105559 23 200 0.0 0.0 0.00 0.00 0.00 79 1013.8
20260831105323 23 200 0.0 0.0 0.00 0.00 0.00 79 1013.9
20260831105307 23 200 0.0 0.0 0.00 0.00 0.00 79 1013.9
20260831105250 23 200 0.0 0.0 0.00 0.00 0.00 79 1013.9
20260831105020 23 200 0.0 0.0 0.00 0.00 0.00 79 1014.0
20260831105005 23 200 0.0 0.0 0.00 0.00 0.00 79 1014.1
20260831104725 23 200 0.0 0.0 0.00 0.00 0.00 79 1014.0
20260831104648 23 200 0.0 0.0 0.00 0.00 0.00 79 1014.1
20260831103937 23 200 0.0 0.0 0.00 0.00 0.00 78 1014.3
20260831103931 23 200 0.0 0.0 0.00 0.00 0.00 77 1014.2
20260831103923 23 200 0.0 0.0 0.00 0.00 0.00 78 1014.0
20260831103908 23 200 0.0 0.0 0.00 0.00 0.00 78 1014.2
20260831103853 23 200 0.0 0.0 0.00 0.00 0.00 78 1014.2
20260831103843 23 200 0.0 0.0 0.00 0.00 0.00 78 1014.0
20260831103829 23 200 0.0 0.0 0.00 0.00 0.00 78 1014.0
20260831103812 23 200 0.0 0.0 0.00 0.00 0.00 78 1013.9
20260831103757 23 200 0.0 0.0 0.00 0.00 0.00 78 1014.1
20260831103741 23 200 0.0 0.0 0.00 0.00 0.00 78 1013.9
20260831103728 23 200 0.0 0.0 0.00 0.00 0.00 78 1013.9
20260831103718 23 200 0.0 0.0 0.00 0.00 0.00 78 1014.1
20260831103703 23 200 0.0 0.0 0.00 0.00 0.00 78 1014.2
20260831103646 23 200 0.0 0.0 0.00 0.00 0.00 78 1014.3
20260831103629 23 200 0.0 0.0 0.00 0.00 0.00 78 1014.0
20260831102919 23 200 0.0 0.0 0.00 0.00 0.00 78 1014.2
20260831102642 23 200 0.0 0.0 0.00 0.00 0.00 77 1014.0
20260831102626 23 200 0.0 0.0 0.00 0.00 0.00 77 1014.2
20260831102052 23 200 0.0 0.0 0.00 0.00 0.00 77 1014.2
20260831101953 23 200 0.0 0.0 0.00 0.00 0.00 77 1014.0
20260831101932 23 200 0.0 0.0 0.00 0.00 0.00 77 1014.2
20260831101916 23 200 0.0 0.0 0.00 0.00 0.00 76 1014.1
20260831101901 23 200 0.0 0.0 0.00 0.00 0.00 76 1014.1
20260831101852 23 200 0.0 0.0 0.00 0.00 0.00 76 1013.9
20260831101835 23 200 0.0 0.0 0.00 0.00 0.00 76 1014.0
20260831101239 23 200 0.0 0.0 0.00 0.00 0.00 76 1014.1
20260831101230 23 200 0.0 0.0 0.00 0.00 0.00 76 1014.0
20260831101214 23 200 0.0 0.0 0.00 0.00 0.00 76 1014.0
20260831100934 24 200 0.0 0.0 0.00 0.00 0.00 75 1014.1
20260831100926 23 200 0.0 0.0 0.00 0.00 0.00 76 1013.9
20260831100855 23 200 0.0 0.0 0.00 0.00 0.00 75 1014.2
20260831100845 24 200 0.0 0.0 0.00 0.00 0.00 75 1014.2
20260831100608 24 200 0.0 0.0 0.00 0.00 0.00 75 1014.0
20260831100553 24 200 0.0 0.0 0.00 0.00 0.00 75 1014.0
20260831100537 24 200 0.0 0.0 0.00 0.00 0.00 75 1014.1
20260831100306 24 200 0.0 0.0 0.00 0.00 0.00 75 1014.2
20260831100250 24 200 0.0 0.0 0.00 0.00 0.00 74 1014.1
20260831100234 24 200 0.0 0.0 0.00 0.00 0.00 74 1014.1
20260831095725 24 200 0.0 1.6 0.00 0.00 0.00 74 1014.1
20260831095654 24 200 0.0 1.6 0.00 0.00 0.00 74 1014.0
20260831095554 24 200 0.0 1.6 0.00 0.00 0.00 74 1014.1
20260831095520 24 200 0.0 1.6 0.00 0.00 0.00 74 1014.3
20260831095514 24 200 0.0 1.6 0.00 0.00 0.00 74 1014.0
20260831095457 24 200 0.0 1.6 0.00 0.00 0.00 74 1014.2
20260831095443 24 200 0.0 1.6 0.00 0.00 0.00 74 1014.3
20260831095154 24 200 0.0 1.6 0.00 0.00 0.00 74 1014.2
20260831095053 24 200 0.0 1.6 0.00 0.00 0.00 74 1014.2
20260831094954 24 200 0.0 3.2 0.00 0.00 0.00 75 1014.0
20260831094853 24 203 0.0 3.2 0.00 0.00 0.00 75 1013.9
20260831094753 24 203 0.0 3.2 0.00 0.00 0.00 75 1014.2
20260831094725 24 204 0.0 3.2 0.00 0.00 0.00 75 1014.2
20260831094654 24 204 0.0 3.2 0.00 0.00 0.00 75 1014.3
20260831094553 23 204 0.0 3.2 0.00 0.00 0.00 75 1014.1
20260831094453 23 204 0.0 6.4 0.00 0.00 0.00 75 1014.3
20260831094353 23 205 0.0 6.4 0.00 0.00 0.00 74 1014.1
20260831094253 23 203 0.0 6.4 0.00 0.00 0.00 74 1014.2
20260831094225 23 202 0.0 6.4 0.00 0.00 0.00 74 1014.2
20260831094209 23 203 0.0 6.4 0.00 0.00 0.00 74 1014.1
20260831094153 23 221 1.6 6.4 0.00 0.00 0.00 73 1014.1
20260831094137 23 206 1.6 6.4 0.00 0.00 0.00 73 1014.0
20260831094123 23 225 3.2 6.4 0.00 0.00 0.00 74 1014.1
20260831094107 23 200 0.0 6.4 0.00 0.00 0.00 74 1014.2
20260831094052 23 198 0.0 6.4 0.00 0.00 0.00 74 1014.2
20260831093600 23 189 1.6 4.8 0.00 0.00 0.00 74 1013.9
20260831093225 23 189 0.0 4.8 0.00 0.00 0.00 73 1014.0
20260831093142 23 201 0.0 4.8 0.00 0.00 0.00 73 1014.0
20260831093117 23 204 1.6 4.8 0.00 0.00 0.00 73 1014.0
20260831093101 23 204 1.6 4.8 0.00 0.00 0.00 72 1013.8
20260831092741 23 208 0.0 3.2 0.00 0.00 0.00 72 1014.1
20260831092725 23 207 0.0 3.2 0.00 0.00 0.00 72 1014.1
20260831092642 23 208 3.2 3.2 0.00 0.00 0.00 72 1014.0
20260831092541 23 202 0.0 3.2 0.00 0.00 0.00 72 1014.1
20260831092441 23 202 0.0 3.2 0.00 0.00 0.00 72 1013.9
20260831092408 24 178 0.0 3.2 0.00 0.00 0.00 70 1013.5
20260831092400 24 203 0.0 3.2 0.00 0.00 0.00 71 1013.9
20260831092345 24 216 1.6 3.2 0.00 0.00 0.00 71 1013.9
20260831092333 24 205 1.6 3.2 0.00 0.00 0.00 71 1013.9
20260831092320 24 200 0.0 3.2 0.00 0.00 0.00 71 1013.9
20260831092301 24 201 0.0 3.2 0.00 0.00 0.00 71 1013.8
20260831092004 24 208 1.6 3.2 0.00 0.00 0.00 71 1013.7
20260831091948 24 217 1.6 3.2 0.00 0.00 0.00 71 1013.9
20260831091932 24 192 0.0 3.2 0.00 0.00 0.00 71 1013.9
20260831091918 24 201 0.0 3.2 0.00 0.00 0.00 71 1013.9
20260831091909 24 200 0.0 3.2 0.00 0.00 0.00 71 1013.8
20260831091853 24 200 0.0 4.8 0.00 0.00 0.00 70 1014.0
20260831091838 24 201 0.0 4.8 0.00 0.00 0.00 70 1013.7
20260831091602 24 194 0.0 4.8 0.00 0.00 0.00 70 1013.8
20260831091549 24 200 0.0 4.8 0.00 0.00 0.00 70 1013.8
20260831091320 24 207 0.0 4.8 0.00 0.00 0.00 70 1014.0
20260831091304 24 198 0.0 4.8 0.00 0.00 0.00 71 1013.9
20260831091029 24 198 0.0 4.8 0.00 0.00 0.00 70 1013.7
20260831091014 24 203 3.2 4.8 0.00 0.00 0.00 70 1013.7
20260831090744 24 196 0.0 3.2 0.00 0.00 0.00 71 1013.6
20260831090506 24 196 0.0 3.2 0.00 0.00 0.00 71 1013.7
20260831090449 24 208 0.0 3.2 0.00 0.00 0.00 71 1013.8
20260831090436 24 212 1.6 3.2 0.00 0.00 0.00 71 1013.8
20260831090427 24 202 0.0 3.2 0.00 0.00 0.00 70 1013.9
20260831090412 24 215 1.6 3.2 0.00 0.00 0.00 70 1013.9
20260831090356 24 199 0.0 3.2 0.00 0.00 0.00 71 1013.9
20260831090339 24 194 0.0 3.2 0.00 0.00 0.00 71 1013.8
20260831090323 24 194 0.0 3.2 0.00 0.00 0.00 70 1013.7
20260831090309 24 207 0.0 3.2 0.00 0.00 0.00 70 1013.7
20260831090259 24 194 0.0 3.2 0.00 0.00 0.00 70 1013.8
20260831090243 24 193 0.0 3.2 0.00 0.00 0.00 71 1013.8
20260831085314 24 204 0.0 3.2 0.00 0.00 0.00 70 1013.6
20260831085257 24 192 0.0 3.2 0.00 0.00 0.00 70 1013.8
20260831084716 24 202 0.0 0.0 0.00 0.00 0.00 70 1013.9
20260831084252 23 189 0.0 6.4 0.00 0.00 0.00 70 1013.8
20260831084245 23 190 0.0 6.4 0.00 0.00 0.00 70 1013.7
20260831084231 23 191 0.0 6.4 0.00 0.00 0.00 70 1013.7
20260831083912 24 161 1.6 4.8 0.00 0.00 0.00 69 1013.8
20260831083811 24 170 1.6 4.8 0.00 0.00 0.00 69 1013.6
20260831083719 24 194 3.2 4.8 0.00 0.00 0.00 68 1013.6
20260831083711 24 199 4.8 4.8 0.00 0.00 0.00 68 1013.7
20260831083612 24 185 1.6 6.4 0.00 0.00 0.00 69 1013.7
20260831083511 24 198 0.0 6.4 0.00 0.00 0.00 69 1013.8
20260831083411 24 190 3.2 6.4 0.00 0.00 0.00 68 1013.7
20260831083311 24 191 1.6 6.4 0.00 0.00 0.00 68 1013.9
20260831083219 24 161 3.2 6.4 0.00 0.00 0.00 68 1013.9
20260831083210 24 161 3.2 6.4 0.00 0.00 0.00 68 1013.7
20260831083148 24 183 1.6 9.7 0.00 0.00 0.00 68 1013.7
20260831083131 24 189 0.0 9.7 0.00 0.00 0.00 68 1013.7
20260831082855 24 196 0.0 12.9 0.00 0.00 0.00 67 1013.9
20260831082837 24 233 6.4 12.9 0.00 0.00 0.00 67 1013.9
20260831082830 24 207 1.6 12.9 0.00 0.00 0.00 67 1014.0
20260831082511 24 204 0.0 12.9 0.00 0.00 0.00 67 1013.7
20260831082411 24 174 3.2 12.9 0.00 0.00 0.00 66 1013.7
20260831082312 25 181 3.2 12.9 0.00 0.00 0.00 66 1013.8
20260831082258 24 187 1.6 4.8 0.00 0.00 0.00 67 1013.7
20260831082247 25 217 4.8 12.9 0.00 0.00 0.00 66 1013.8
20260831082241 25 246 1.6 12.9 0.00 0.00 0.00 66 1013.7
20260831082226 25 212 4.8 12.9 0.00 0.00 0.00 67 1013.8
20260831082209 25 223 0.0 12.9 0.00 0.00 0.00 66 1013.7
20260831082153 25 209 3.2 12.9 0.00 0.00 0.00 66 1013.6
20260831081916 24 199 0.0 4.8 0.00 0.00 0.00 68 1013.7
20260831081909 24 198 0.0 4.8 0.00 0.00 0.00 67 1013.7
20260831081853 24 197 1.6 4.8 0.00 0.00 0.00 67 1013.9
20260831081837 24 202 4.8 4.8 0.00 0.00 0.00 66 1013.7
20260831081822 24 162 0.0 4.8 0.00 0.00 0.00 67 1013.5
20260831081805 24 122 3.2 4.8 0.00 0.00 0.00 66 1013.7
20260831081019 24 182 0.0 4.8 0.00 0.00 0.00 68 1013.9
20260831081013 24 191 0.0 4.8 0.00 0.00 0.00 68 1013.7
20260831080957 24 203 3.2 4.8 0.00 0.00 0.00 68 1013.8
20260831080941 24 204 1.6 4.8 0.00 0.00 0.00 68 1013.9
20260831080711 24 185 0.0 4.8 0.00 0.00 0.00 68 1013.7
20260831080612 24 189 0.0 4.8 0.00 0.00 0.00 69 1013.6
20260831080601 23 200 1.6 4.8 0.00 0.00 0.00 68 1013.7
20260831080557 24 190 1.6 3.2 0.00 0.00 0.00 71 1013.8
20260831080548 23 194 0.0 4.8 0.00 0.00 0.00 69 1013.6
20260831080533 23 190 0.0 4.8 0.00 0.00 0.00 69 1013.5
20260831080517 23 203 1.6 4.8 0.00 0.00 0.00 69 1013.7
20260831080249 23 196 0.0 4.8 0.00 0.00 0.00 68 1013.7
20260831080233 23 199 1.6 4.8 0.00 0.00 0.00 68 1013.8
20260831080216 23 195 0.0 4.8 0.00 0.00 0.00 69 1013.9
20260831080159 23 191 1.6 4.8 0.00 0.00 0.00 68 1013.8
20260831080144 24 187 1.6 3.2 0.00 0.00 0.00 69 1013.8
20260831075647 24 201 0.0 3.2 0.00 0.00 0.00 70 1013.9
20260831075631 24 206 3.2 3.2 0.00 0.00 0.00 70 1013.8
20260831075311 23 165 0.0 3.2 0.00 0.00 0.00 70 1013.7
20260831075220 23 199 0.0 3.2 0.00 0.00 0.00 70 1013.7
20260831075211 23 199 0.0 3.2 0.00 0.00 0.00 70 1013.8
20260831075111 23 192 0.0 3.2 0.00 0.00 0.00 70 1013.9
20260831075012 23 196 0.0 3.2 0.00 0.00 0.00 70 1013.8
20260831074910 23 165 0.0 3.2 0.00 0.00 0.00 71 1013.9
20260831074811 23 194 0.0 3.2 0.00 0.00 0.00 71 1013.9
20260831074731 23 185 0.0 3.2 0.00 0.00 0.00 71 1013.9
20260831074711 23 162 1.6 3.2 0.00 0.00 0.00 71 1013.7
20260831074611 23 188 0.0 3.2 0.00 0.00 0.00 72 1013.8
20260831074547 23 208 1.6 3.2 0.00 0.00 0.00 71 1013.8
20260831074531 23 168 0.0 3.2 0.00 0.00 0.00 72 1014.0
20260831074220 23 157 0.0 3.2 0.00 0.00 0.00 71 1013.9
20260831074211 23 200 0.0 3.2 0.00 0.00 0.00 71 1014.1
20260831074147 23 197 0.0 3.2 0.00 0.00 0.00 71 1014.1
20260831074131 23 189 1.6 3.2 0.00 0.00 0.00 71 1014.0
20260831073811 23 201 0.0 1.6 0.00 0.00 0.00 74 1013.9
20260831073719 23 200 0.0 1.6 0.00 0.00 0.00 74 1013.9
20260831073712 23 198 0.0 1.6 0.00 0.00 0.00 74 1013.8
20260831073611 23 268 0.0 1.6 0.00 0.00 0.00 74 1014.0
20260831073512 22 191 0.0 1.6 0.00 0.00 0.00 74 1014.2
20260831073411 22 186 0.0 1.6 0.00 0.00 0.00 74 1014.1
20260831073311 22 190 0.0 1.6 0.00 0.00 0.00 74 1014.0
20260831073219 22 187 0.0 1.6 0.00 0.00 0.00 75 1014.0
20260831073210 22 187 0.0 1.6 0.00 0.00 0.00 75 1013.9
20260831073112 22 160 0.0 1.6 0.00 0.00 0.00 75 1014.0
20260831073048 22 178 0.0 1.6 0.00 0.00 0.00 75 1013.8
20260831073032 22 184 0.0 1.6 0.00 0.00 0.00 76 1014.1
20260831072719 22 164 0.0 1.6 0.00 0.00 0.00 75 1014.2
20260831072712 22 173 0.0 1.6 0.00 0.00 0.00 75 1014.1
20260831072611 22 172 0.0 1.6 0.00 0.00 0.00 75 1014.1
20260831072547 22 170 0.0 1.6 0.00 0.00 0.00 75 1013.9
20260831072531 22 123 1.6 1.6 0.00 0.00 0.00 75 1014.0
20260831072219 22 183 0.0 1.6 0.00 0.00 0.00 76 1013.8
20260831072211 22 184 0.0 1.6 0.00 0.00 0.00 75 1014.0
20260831072110 22 144 0.0 1.6 0.00 0.00 0.00 76 1014.0
20260831072047 22 174 0.0 1.6 0.00 0.00 0.00 76 1014.0
20260831072031 22 156 1.6 1.6 0.00 0.00 0.00 76 1014.0
20260831071719 22 152 0.0 1.6 0.00 0.00 0.00 77 1014.1
20260831071712 22 138 0.0 1.6 0.00 0.00 0.00 77 1013.8
20260831071612 22 191 0.0 1.6 0.00 0.00 0.00 77 1014.1
20260831071511 22 196 0.0 1.6 0.00 0.00 0.00 78 1013.9
20260831071417 21 199 0.0 1.6 0.00 0.00 0.00 79 1014.0
20260831071400 21 197 0.0 1.6 0.00 0.00 0.00 79 1014.1
20260831071344 21 170 0.0 1.6 0.00 0.00 0.00 79 1014.1
20260831071337 21 170 0.0 1.6 0.00 0.00 0.00 79 1014.2
20260831071011 21 183 0.0 1.6 0.00 0.00 0.00 80 1014.1
20260831070911 21 170 1.6 1.6 0.00 0.00 0.00 81 1013.9
20260831070812 21 197 0.0 1.6 0.00 0.00 0.00 81 1014.0
20260831070753 21 180 0.0 1.6 0.00 0.00 0.00 81 1014.0
20260831070746 21 183 0.0 1.6 0.00 0.00 0.00 81 1014.0
20260831070731 20 189 0.0 1.6 0.00 0.00 0.00 82 1014.2
20260831070411 20 191 0.0 1.6 0.00 0.00 0.00 83 1014.0
20260831070311 20 189 0.0 1.6 0.00 0.00 0.00 83 1014.1
20260831070254 20 188 0.0 1.6 0.00 0.00 0.00 83 1014.1
20260831070247 20 189 0.0 1.6 0.00 0.00 0.00 82 1014.1
20260831070231 20 183 0.0 1.6 0.00 0.00 0.00 83 1014.1
20260831065911 20 177 0.0 1.6 0.00 0.00 0.00 83 1014.0
20260831065811 20 181 0.0 0.0 0.00 0.00 0.00 83 1014.0
20260831065719 20 175 0.0 0.0 0.00 0.00 0.00 83 1014.0
20260831065710 20 162 0.0 0.0 0.00 0.00 0.00 83 1013.9
20260831065611 20 168 0.0 0.0 0.00 0.00 0.00 84 1014.0
20260831065548 20 178 0.0 0.0 0.00 0.00 0.00 85 1014.2
20260831065532 20 167 0.0 0.0 0.00 0.00 0.00 84 1014.0
20260831065219 20 157 0.0 0.0 0.00 0.00 0.00 85 1014.0
20260831065211 20 157 0.0 0.0 0.00 0.00 0.00 85 1013.9
20260831065146 20 183 0.0 0.0 0.00 0.00 0.00 85 1014.0
20260831065130 20 168 0.0 0.0 0.00 0.00 0.00 85 1013.9
20260831065115 20 177 0.0 0.0 0.00 0.00 0.00 86 1014.1
20260831064850 20 181 0.0 0.0 0.00 0.00 0.00 86 1014.1
20260831064833 20 169 0.0 0.0 0.00 0.00 0.00 86 1014.0
20260831064826 20 122 0.0 0.0 0.00 0.00 0.00 86 1014.1
20260831064811 20 161 0.0 0.0 0.00 0.00 0.00 86 1014.1
20260831064547 20 174 0.0 0.0 0.00 0.00 0.00 86 1014.3
20260831064530 19 180 0.0 0.0 0.00 0.00 0.00 87 1014.1
20260831064515 19 183 0.0 0.0 0.00 0.00 0.00 87 1014.2
20260831064248 19 181 0.0 0.0 0.00 0.00 0.00 87 1014.0
20260831064232 19 176 0.0 0.0 0.00 0.00 0.00 87 1014.2
20260831064217 19 183 0.0 0.0 0.00 0.00 0.00 87 1014.2
20260831063941 19 160 0.0 0.0 0.00 0.00 0.00 88 1014.1
20260831063923 19 165 0.0 0.0 0.00 0.00 0.00 88 1014.1
20260831063611 19 187 0.0 0.0 0.00 0.00 0.00 88 1014.0
20260831063511 19 185 0.0 0.0 0.00 0.00 0.00 88 1014.2
20260831063411 19 165 0.0 0.0 0.00 0.00 0.00 88 1014.2
20260831063312 19 186 0.0 0.0 0.00 0.00 0.00 88 1014.3
20260831063219 19 186 0.0 0.0 0.00 0.00 0.00 88 1014.3
20260831063210 19 186 0.0 0.0 0.00 0.00 0.00 88 1014.2
20260831063112 19 164 0.0 0.0 0.00 0.00 0.00 88 1014.1
20260831063012 19 171 0.0 0.0 0.00 0.00 0.00 89 1014.2
20260831062912 19 177 0.0 0.0 0.00 0.00 0.00 89 1014.2
20260831062811 19 181 0.0 0.0 0.00 0.00 0.00 89 1014.2
20260831062719 19 182 0.0 0.0 0.00 0.00 0.00 89 1014.2
20260831062712 19 181 0.0 0.0 0.00 0.00 0.00 89 1014.2
20260831062648 19 162 0.0 0.0 0.00 0.00 0.00 89 1014.1
20260831062631 19 188 0.0 0.0 0.00 0.00 0.00 89 1013.9
20260831062311 19 189 0.0 0.0 0.00 0.00 0.00 89 1014.2
20260831062219 19 176 0.0 0.0 0.00 0.00 0.00 89 1014.2
20260831062211 19 175 0.0 0.0 0.00 0.00 0.00 89 1014.2
20260831062111 19 185 0.0 0.0 0.00 0.00 0.00 89 1014.1
20260831062011 19 187 0.0 0.0 0.00 0.00 0.00 89 1014.1
20260831061911 18 188 0.0 0.0 0.00 0.00 0.00 89 1014.2
20260831061856 18 167 0.0 0.0 0.00 0.00 0.00 89 1014.0
20260831061838 18 142 0.0 0.0 0.00 0.00 0.00 89 1014.0
20260831061832 18 193 0.0 0.0 0.00 0.00 0.00 89 1014.0
20260831061549 18 194 0.0 0.0 0.00 0.00 0.00 91 1014.2
20260831061541 18 157 0.0 0.0 0.00 0.00 0.00 89 1014.2
20260831061525 18 141 0.0 0.0 0.00 0.00 0.00 90 1014.3
20260831061509 18 181 0.0 0.0 0.00 0.00 0.00 91 1014.2
20260831061242 18 194 0.0 0.0 0.00 0.00 0.00 91 1014.3
20260831061226 18 162 0.0 0.0 0.00 0.00 0.00 91 1014.2
20260831061210 18 168 0.0 0.0 0.00 0.00 0.00 91 1014.2
20260831061154 18 174 0.0 0.0 0.00 0.00 0.00 91 1014.1
20260831060914 18 169 0.0 0.0 0.00 0.00 0.00 92 1014.2
20260831060908 18 164 0.0 0.0 0.00 0.00 0.00 92 1014.2
20260831060632 18 164 0.0 0.0 0.00 0.00 0.00 93 1014.1
20260831060312 18 165 0.0 0.0 0.00 0.00 0.00 94 1014.2
20260831060219 18 178 0.0 0.0 0.00 0.00 0.00 94 1014.2
20260831060211 18 178 0.0 0.0 0.00 0.00 0.00 94 1014.3
20260831060110 17 182 0.0 0.0 0.00 0.00 0.00 94 1014.3
20260831060046 17 180 0.0 0.0 0.00 0.00 0.00 95 1014.5
20260831060031 17 185 0.0 0.0 0.00 0.00 0.00 95 1014.5
20260831055719 17 185 0.0 0.0 0.00 0.00 0.00 95 1014.2
20260831055712 17 184 0.0 0.0 0.00 0.00 0.00 95 1014.3
20260831055612 17 184 0.0 0.0 0.00 0.00 0.00 95 1014.3
20260831055511 17 184 0.0 0.0 0.00 0.00 0.00 95 1014.3
20260831055412 17 184 0.0 0.0 0.00 0.00 0.00 95 1014.5
20260831055347 17 184 0.0 0.0 0.00 0.00 0.00 96 1014.3
20260831055332 17 184 0.0 0.0 0.00 0.00 0.00 96 1014.3
20260831055325 17 184 0.0 0.0 0.00 0.00 0.00 96 1014.5
20260831055310 17 184 0.0 0.0 0.00 0.00 0.00 96 1014.6
20260831055033 17 183 0.0 0.0 0.00 0.00 0.00 96 1014.2
20260831055018 17 183 0.0 0.0 0.00 0.00 0.00 96 1014.3
20260831055000 17 184 0.0 0.0 0.00 0.00 0.00 96 1014.3
20260831054732 17 184 0.0 0.0 0.00 0.00 0.00 97 1014.3
20260831054411 17 186 0.0 0.0 0.00 0.00 0.00 97 1014.2
20260831054312 17 186 0.0 0.0 0.00 0.00 0.00 97 1014.5
20260831054254 16 187 0.0 0.0 0.00 0.00 0.00 97 1014.5
20260831054247 16 187 0.0 0.0 0.00 0.00 0.00 97 1014.3
20260831054232 16 187 0.0 0.0 0.00 0.00 0.00 97 1014.5
20260831054216 16 188 0.0 0.0 0.00 0.00 0.00 97 1014.5
20260831053940 16 188 0.0 0.0 0.00 0.00 0.00 97 1014.2
20260831053923 16 188 0.0 0.0 0.00 0.00 0.00 97 1014.2
20260831053611 16 188 0.0 0.0 0.00 0.00 0.00 97 1014.5
20260831053554 16 188 0.0 0.0 0.00 0.00 0.00 97 1014.3
20260831053544 16 188 0.0 0.0 0.00 0.00 0.00 97 1014.5
20260831053528 16 188 0.0 0.0 0.00 0.00 0.00 97 1014.1
20260831053513 16 188 0.0 0.0 0.00 0.00 0.00 97 1014.3
20260831053247 16 188 0.0 0.0 0.00 0.00 0.00 97 1014.3
20260831053231 16 187 0.0 0.0 0.00 0.00 0.00 97 1014.3
20260831052911 16 188 0.0 0.0 0.00 0.00 0.00 97 1014.3
20260831052811 16 188 0.0 0.0 0.00 0.00 0.00 97 1014.3
20260831052720 16 189 0.0 0.0 0.00 0.00 0.00 97 1014.3
20260831052711 16 189 0.0 0.0 0.00 0.00 0.00 97 1014.2
20260831052611 16 189 0.0 0.0 0.00 0.00 0.00 97 1014.5
20260831052548 16 189 0.0 0.0 0.00 0.00 0.00 97 1014.3
20260831052531 16 189 0.0 0.0 0.00 0.00 0.00 97 1014.5
20260831052219 16 189 0.0 0.0 0.00 0.00 0.00 97 1014.5
20260831052211 16 189 0.0 0.0 0.00 0.00 0.00 97 1014.5
20260831052146 16 189 0.0 0.0 0.00 0.00 0.00 97 1014.3
20260831052131 16 189 0.0 0.0 0.00 0.00 0.00 97 1014.5
20260831051811 16 189 0.0 0.0 0.00 0.00 0.00 97 1014.6
20260831051710 16 189 0.0 0.0 0.00 0.00 0.00 98 1014.6
20260831051612 16 189 0.0 0.0 0.00 0.00 0.00 98 1014.5
20260831051510 16 189 0.0 0.0 0.00 0.00 0.00 98 1014.3
20260831051411 16 188 0.0 0.0 0.00 0.00 0.00 98 1014.2
20260831051311 16 188 0.0 0.0 0.00 0.00 0.00 98 1014.2
20260831051220 16 188 0.0 0.0 0.00 0.00 0.00 98 1014.2
20260831051211 16 188 0.0 0.0 0.00 0.00 0.00 98 1014.5
20260831051112 16 187 0.0 0.0 0.00 0.00 0.00 98 1014.2
20260831051011 16 187 0.0 0.0 0.00 0.00 0.00 98 1014.2
20260831050915 16 186 0.0 0.0 0.00 0.00 0.00 98 1014.2
20260831050811 16 186 0.0 0.0 0.00 0.00 0.00 98 1014.1
20260831050711 16 186 0.0 0.0 0.00 0.00 0.00 98 1014.1
20260831050611 16 186 0.0 0.0 0.00 0.00 0.00 98 1014.2
20260831050511 16 186 0.0 0.0 0.00 0.00 0.00 98 1014.5
20260831050410 16 186 0.0 0.0 0.00 0.00 0.00 98 1014.3
20260831050312 16 188 0.0 0.0 0.00 0.00 0.00 98 1014.2
20260831050218 16 190 0.0 0.0 0.00 0.00 0.00 98 1014.2
20260831050212 16 189 0.0 0.0 0.00 0.00 0.00 98 1014.3
20260831050141 16 190 0.0 0.0 0.00 0.00 0.00 98 1014.2
20260831050127 16 190 0.0 0.0 0.00 0.00 0.00 98 1014.5
20260831045851 16 191 0.0 0.0 0.00 0.00 0.00 99 1014.3
20260831045833 16 191 0.0 0.0 0.00 0.00 0.00 99 1014.3
20260831045827 16 191 0.0 0.0 0.00 0.00 0.00 99 1014.1
20260831045555 16 192 0.0 0.0 0.00 0.00 0.00 100 1014.3
20260831045546 16 191 0.0 0.0 0.00 0.00 0.00 99 1014.3
20260831045532 16 191 0.0 0.0 0.00 0.00 0.00 99 1014.5
20260831045516 16 191 0.0 0.0 0.00 0.00 0.00 99 1014.2
20260831045500 16 191 0.0 0.0 0.00 0.00 0.00 99 1014.2
20260831045454 16 191 0.0 0.0 0.00 0.00 0.00 99 1014.5
20260831045009 16 191 0.0 0.0 0.00 0.00 0.00 100 1014.2
20260831044954 16 191 0.0 0.0 0.00 0.00 0.00 100 1014.5
20260831044937 16 192 0.0 0.0 0.00 0.00 0.00 100 1014.3
20260831044707 16 192 0.0 0.0 0.00 0.00 0.00 100 1014.3
20260831044645 15 192 0.0 0.0 0.00 0.00 0.00 100 1014.1
20260831044629 15 192 0.0 0.0 0.00 0.00 0.00 100 1014.5
20260831044353 15 192 0.0 0.0 0.00 0.00 0.00 100 1014.2
20260831044337 15 192 0.0 0.0 0.00 0.00 0.00 100 1014.3
20260831044330 15 192 0.0 0.0 0.00 0.00 0.00 100 1014.3
20260831044100 15 188 0.0 0.0 0.00 0.00 0.00 100 1014.2
20260831044049 15 190 0.0 0.0 0.00 0.00 0.00 100 1014.3
20260831044033 15 190 0.0 0.0 0.00 0.00 0.00 100 1014.2
20260831043809 15 191 0.0 0.0 0.00 0.00 0.00 100 1014.3
20260831043751 15 191 0.0 0.0 0.00 0.00 0.00 100 1014.3
20260831043744 15 190 0.0 0.0 0.00 0.00 0.00 100 1014.3
20260831043728 15 190 0.0 0.0 0.00 0.00 0.00 100 1014.2
20260831043451 15 189 0.0 0.0 0.00 0.00 0.00 100 1014.5
20260831043436 15 188 0.0 0.0 0.00 0.00 0.00 100 1014.2
20260831043208 15 188 0.0 0.0 0.00 0.00 0.00 100 1014.2
20260831043108 15 188 0.0 0.0 0.00 0.00 0.00 100 1014.1
20260831043006 15 186 0.0 0.0 0.00 0.00 0.00 100 1014.0
20260831042908 15 186 0.0 0.0 0.00 0.00 0.00 100 1014.1
20260831042852 15 185 0.0 0.0 0.00 0.00 0.00 100 1014.2
20260831042835 15 186 0.0 0.0 0.00 0.00 0.00 100 1014.2
20260831042828 15 186 0.0 0.0 0.00 0.00 0.00 100 1014.0
20260831042507 15 186 0.0 0.0 0.00 0.00 0.00 100 1014.1
20260831042407 15 185 0.0 0.0 0.00 0.00 0.00 100 1014.3
20260831042307 15 184 0.0 0.0 0.00 0.00 0.00 100 1014.1
20260831042228 15 186 0.0 0.0 0.00 0.00 0.00 100 1014.1
20260831042207 15 185 0.0 0.0 0.00 0.00 0.00 100 1014.3
20260831042108 15 180 0.0 0.0 0.00 0.00 0.00 100 1014.3
20260831042052 15 184 0.0 0.0 0.00 0.00 0.00 100 1014.3
20260831042037 15 181 0.0 0.0 0.00 0.00 0.00 100 1014.3
20260831042023 15 186 0.0 0.0 0.00 0.00 0.00 100 1013.8
20260831042005 14 186 0.0 0.0 0.00 0.00 0.00 100 1013.8
20260831041959 14 186 0.0 0.0 0.00 0.00 0.00 100 1014.5
20260831041943 14 188 0.0 0.0 0.00 0.00 0.00 100 1014.1
20260831041922 14 188 0.0 0.0 0.00 0.00 0.00 100 1014.2
20260831041647 14 190 0.0 0.0 0.00 0.00 0.00 100 1014.3
20260831041522 14 190 0.0 0.0 0.00 0.00 0.00 100 1014.3
20260831041506 14 190 0.0 0.0 0.00 0.00 0.00 100 1014.5
20260831041451 14 190 0.0 0.0 0.00 0.00 0.00 100 1014.3
20260831041216 14 190 0.0 0.0 0.00 0.00 0.00 100 1014.3
20260831041159 14 190 0.0 0.0 0.00 0.00 0.00 100 1014.3
20260831040455 15 190 0.0 0.0 0.00 0.00 0.00 100 1014.3
20260831040451 14 191 0.0 0.0 0.00 0.00 0.00 100 1014.1
20260831040441 14 191 0.0 0.0 0.00 0.00 0.00 100 1014.2
20260831040426 14 191 0.0 0.0 0.00 0.00 0.00 100 1014.5
20260831040411 14 191 0.0 0.0 0.00 0.00 0.00 100 1014.5
20260831040404 14 191 0.0 0.0 0.00 0.00 0.00 100 1014.6
20260831040348 14 190 0.0 0.0 0.00 0.00 0.00 100 1014.2
20260831040333 14 191 0.0 0.0 0.00 0.00 0.00 100 1014.6
20260831040317 14 191 0.0 0.0 0.00 0.00 0.00 100 1014.2
20260831040300 14 191 0.0 0.0 0.00 0.00 0.00 100 1014.1
20260831035550 15 190 0.0 0.0 0.00 0.00 0.00 100 1014.2
20260831035533 15 191 0.0 0.0 0.00 0.00 0.00 100 1014.2
20260831035256 15 191 0.0 0.0 0.00 0.00 0.00 100 1014.3
20260831035250 15 191 0.0 0.0 0.00 0.00 0.00 100 1014.2
20260831035234 15 191 0.0 0.0 0.00 0.00 0.00 100 1014.3
20260831035010 15 191 0.0 0.0 0.00 0.00 0.00 100 1014.3
20260831034954 15 191 0.0 0.0 0.00 0.00 0.00 100 1014.6
20260831034938 15 190 0.0 0.0 0.00 0.00 0.00 100 1014.3
20260831034707 15 190 0.0 0.0 0.00 0.00 0.00 100 1014.2
20260831034608 14 190 0.0 0.0 0.00 0.00 0.00 100 1014.6
20260831034507 14 190 0.0 0.0 0.00 0.00 0.00 100 1014.2
20260831034407 14 190 0.0 0.0 0.00 0.00 0.00 100 1014.2
20260831034307 14 190 0.0 0.0 0.00 0.00 0.00 100 1014.2
20260831034215 14 190 0.0 0.0 0.00 0.00 0.00 100 1014.2
20260831034207 14 190 0.0 0.0 0.00 0.00 0.00 100 1014.6
20260831034107 14 189 0.0 0.0 0.00 0.00 0.00 100 1014.5
20260831034008 14 190 0.0 0.0 0.00 0.00 0.00 100 1014.5
20260831033907 14 190 0.0 0.0 0.00 0.00 0.00 100 1014.5
20260831033807 14 190 0.0 0.0 0.00 0.00 0.00 100 1014.2
20260831033707 14 190 0.0 0.0 0.00 0.00 0.00 100 1014.2
20260831033608 14 190 0.0 0.0 0.00 0.00 0.00 100 1014.3
20260831033509 14 190 0.0 0.0 0.00 0.00 0.00 100 1014.3
20260831033408 14 190 0.0 0.0 0.00 0.00 0.00 100 1014.3
20260831033308 14 190 0.0 0.0 0.00 0.00 0.00 100 1014.1
20260831033251 14 189 0.0 0.0 0.00 0.00 0.00 100 1014.1
20260831033244 14 189 0.0 0.0 0.00 0.00 0.00 100 1014.5
20260831033228 14 189 0.0 0.0 0.00 0.00 0.00 100 1014.3
20260831032951 14 188 0.0 0.0 0.00 0.00 0.00 100 1014.3
20260831032936 14 187 0.0 0.0 0.00 0.00 0.00 100 1014.3
20260831032918 14 186 0.0 0.0 0.00 0.00 0.00 100 1014.3
20260831032606 14 186 0.0 0.0 0.00 0.00 0.00 100 1014.1
20260831032556 14 190 0.0 0.0 0.00 0.00 0.00 100 1014.2
20260831032546 14 185 0.0 0.0 0.00 0.00 0.00 100 1014.2
20260831032530 14 186 0.0 0.0 0.00 0.00 0.00 100 1014.1
20260831032515 14 187 0.0 0.0 0.00 0.00 0.00 100 1014.2
20260831032243 14 190 0.0 0.0 0.00 0.00 0.00 100 1014.3
20260831032228 14 190 0.0 0.0 0.00 0.00 0.00 100 1014.1
20260831031906 14 190 0.0 0.0 0.00 0.00 0.00 100 1014.5
20260831031844 14 190 0.0 0.0 0.00 0.00 0.00 100 1014.5
20260831031825 14 190 0.0 0.0 0.00 0.00 0.00 100 1014.5
20260831031819 14 190 0.0 0.0 0.00 0.00 0.00 100 1014.2
20260831031803 14 190 0.0 0.0 0.00 0.00 0.00 100 1014.5
20260831031527 15 190 0.0 0.0 0.00 0.00 0.00 100 1014.3
20260831031215 15 190 0.0 0.0 0.00 0.00 0.00 100 1014.2
20260831031207 15 190 0.0 0.0 0.00 0.00 0.00 100 1014.5
20260831031107 15 190 0.0 0.0 0.00 0.00 0.00 100 1014.6
20260831031008 15 190 0.0 0.0 0.00 0.00 0.00 100 1014.3
20260831030907 15 190 0.0 0.0 0.00 0.00 0.00 100 1014.6
20260831030821 15 190 0.0 0.0 0.00 0.00 0.00 100 1014.2
20260831030804 15 190 0.0 0.0 0.00 0.00 0.00 100 1014.2
20260831030744 15 190 0.0 0.0 0.00 0.00 0.00 100 1014.5
20260831030728 15 190 0.0 0.0 0.00 0.00 0.00 100 1014.5
20260831030406 14 190 0.0 0.0 0.00 0.00 0.00 100 1014.6
20260831030338 15 190 0.0 0.0 0.00 0.00 0.00 100 1014.5
20260831030329 14 190 0.0 0.0 0.00 0.00 0.00 100 1014.6
20260831030307 14 190 0.0 0.0 0.00 0.00 0.00 100 1014.5
20260831030251 14 190 0.0 0.0 0.00 0.00 0.00 100 1014.6
20260831030031 15 190 0.0 0.0 0.00 0.00 0.00 100 1014.3
20260831030023 14 190 0.0 0.0 0.00 0.00 0.00 100 1014.3
20260831030008 14 190 0.0 0.0 0.00 0.00 0.00 100 1014.3
20260831025952 15 190 0.0 0.0 0.00 0.00 0.00 100 1014.7
20260831025935 15 190 0.0 0.0 0.00 0.00 0.00 100 1014.7
20260831025928 15 190 0.0 0.0 0.00 0.00 0.00 100 1014.5
20260831025912 15 190 0.0 0.0 0.00 0.00 0.00 100 1014.3
20260831025855 15 190 0.0 0.0 0.00 0.00 0.00 100 1014.6
20260831025840 15 190 0.0 0.0 0.00 0.00 0.00 100 1014.6
20260831025824 15 190 0.0 0.0 0.00 0.00 0.00 100 1014.5
20260831025808 15 190 0.0 0.0 0.00 0.00 0.00 100 1014.5
20260831025802 15 190 0.0 0.0 0.00 0.00 0.00 100 1014.6
20260831025746 15 190 0.0 0.0 0.00 0.00 0.00 100 1014.5
20260831025729 15 190 0.0 0.0 0.00 0.00 0.00 100 1014.7
20260831025454 15 190 0.0 0.0 0.00 0.00 0.00 100 1014.5
20260831025227 15 190 0.0 0.0 0.00 0.00 0.00 100 1014.5
20260831024951 15 190 0.0 0.0 0.00 0.00 0.00 100 1014.6
20260831024935 15 190 0.0 0.0 0.00 0.00 0.00 100 1014.5
20260831024448 15 190 0.0 0.0 0.00 0.00 0.00 100 1014.3
20260831023942 15 190 0.0 0.0 0.00 0.00 0.00 100 1014.6
20260831023908 15 190 0.0 0.0 0.00 0.00 0.00 100 1014.6
20260831023555 15 190 0.0 0.0 0.00 0.00 0.00 100 1014.8
20260831023454 15 190 0.0 0.0 0.00 0.00 0.00 100 1014.7
20260831023354 15 190 0.0 0.0 0.00 0.00 0.00 100 1014.5
20260831023250 15 190 0.0 0.0 0.00 0.00 0.00 100 1014.3
20260831023229 15 190 0.0 0.0 0.00 0.00 0.00 100 1014.6
20260831023214 15 190 0.0 0.0 0.00 0.00 0.00 99 1014.7
20260831022854 15 190 0.0 0.0 0.00 0.00 0.00 99 1014.5
20260831022756 15 190 0.0 0.0 0.00 0.00 0.00 99 1014.7
20260831022714 15 190 0.0 0.0 0.00 0.00 0.00 99 1014.7
20260831022654 15 190 0.0 0.0 0.00 0.00 0.00 99 1014.6
20260831022554 15 190 0.0 0.0 0.00 0.00 0.00 99 1014.6
20260831022455 15 190 0.0 0.0 0.00 0.00 0.00 99 1014.7
20260831022354 15 190 0.0 0.0 0.00 0.00 0.00 99 1014.6
20260831022255 15 190 0.0 0.0 0.00 0.00 0.00 99 1014.7
20260831022214 15 190 0.0 0.0 0.00 0.00 0.00 99 1014.7
20260831022154 15 190 0.0 0.0 0.00 0.00 0.00 99 1014.7
20260831022054 15 190 0.0 0.0 0.00 0.00 0.00 99 1014.6
20260831021954 15 190 0.0 0.0 0.00 0.00 0.00 99 1014.6
20260831021854 15 190 0.0 0.0 0.00 0.00 0.00 99 1014.3
20260831021715 15 190 0.0 0.0 0.00 0.00 0.00 99 1014.8
20260831021643 15 190 0.0 0.0 0.00 0.00 0.00 99 1014.3
20260831021542 15 190 0.0 0.0 0.00 0.00 0.00 99 1014.5
20260831021510 15 190 0.0 0.0 0.00 0.00 0.00 99 1014.6
20260831021503 15 190 0.0 0.0 0.00 0.00 0.00 99 1014.6
20260831021447 15 190 0.0 0.0 0.00 0.00 0.00 99 1014.8
20260831021432 15 190 0.0 0.0 0.00 0.00 0.00 99 1014.6
20260831021142 15 190 0.0 0.0 0.00 0.00 0.00 99 1014.3
20260831021042 15 190 0.0 0.0 0.00 0.00 0.00 99 1014.8
20260831020942 15 190 0.0 0.0 0.00 0.00 0.00 98 1014.3
20260831020842 15 190 0.0 0.0 0.00 0.00 0.00 98 1014.5
20260831020733 15 190 0.0 0.0 0.00 0.00 0.00 98 1014.6
20260831020724 15 190 0.0 0.0 0.00 0.00 0.00 98 1014.5
20260831020714 15 190 0.0 0.0 0.00 0.00 0.00 98 1014.2
20260831020700 15 190 0.0 0.0 0.00 0.00 0.00 98 1014.8
20260831020644 15 190 0.0 0.0 0.00 0.00 0.00 98 1014.7
20260831020628 15 190 0.0 0.0 0.00 0.00 0.00 98 1014.7
20260831020613 15 190 0.0 0.0 0.00 0.00 0.00 98 1014.6
20260831020041 15 190 0.0 0.0 0.00 0.00 0.00 98 1014.7
20260831015942 15 190 0.0 0.0 0.00 0.00 0.00 98 1014.8
20260831015842 15 190 0.0 0.0 0.00 0.00 0.00 98 1014.6
20260831015715 15 190 0.0 0.0 0.00 0.00 0.00 98 1014.6
20260831015642 15 190 0.0 0.0 0.00 0.00 0.00 98 1014.7
20260831015541 15 190 0.0 0.0 0.00 0.00 0.00 98 1014.7
20260831015443 15 190 0.0 0.0 0.00 0.00 0.00 98 1014.6
20260831015343 15 190 0.0 0.0 0.00 0.00 0.00 98 1014.7
20260831015214 15 190 0.0 0.0 0.00 0.00 0.00 98 1014.6
20260831015141 15 190 0.0 0.0 0.00 0.00 0.00 98 1014.7
20260831015042 15 190 0.0 0.0 0.00 0.00 0.00 98 1014.6
20260831014941 15 190 0.0 0.0 0.00 0.00 0.00 98 1014.5
20260831014844 15 190 0.0 0.0 0.00 0.00 0.00 98 1014.7
20260831014716 15 190 0.0 0.0 0.00 0.00 0.00 98 1014.5
20260831014630 15 190 0.0 0.0 0.00 0.00 0.00 98 1014.7
20260831014530 15 190 0.0 0.0 0.00 0.00 0.00 98 1014.5
20260831014431 15 190 0.0 0.0 0.00 0.00 0.00 98 1014.6
20260831014331 15 190 0.0 0.0 0.00 0.00 0.00 98 1014.6
20260831014310 16 190 0.0 0.0 0.00 0.00 0.00 98 1014.8
20260831014250 15 190 0.0 0.0 0.00 0.00 0.00 98 1014.8
20260831014240 15 190 0.0 0.0 0.00 0.00 0.00 98 1014.7
20260831014224 15 190 0.0 0.0 0.00 0.00 0.00 98 1014.7
20260831013947 16 190 0.0 0.0 0.00 0.00 0.00 98 1014.8
20260831013931 16 190 0.0 0.0 0.00 0.00 0.00 98 1014.8
20260831013630 15 190 0.0 0.0 0.00 0.00 0.00 98 1014.7
20260831013530 15 190 0.0 0.0 0.00 0.00 0.00 98 1014.7
20260831013431 15 190 0.0 0.0 0.00 0.00 0.00 97 1014.6
20260831013331 15 190 0.0 0.0 0.00 0.00 0.00 97 1014.7
20260831013217 15 190 0.0 0.0 0.00 0.00 0.00 97 1014.9
20260831013207 15 190 0.0 0.0 0.00 0.00 0.00 97 1014.6
20260831013150 15 190 0.0 0.0 0.00 0.00 0.00 97 1014.5
20260831012829 15 190 0.0 0.0 0.00 0.00 0.00 97 1014.9
20260831012714 15 190 0.0 0.0 0.00 0.00 0.00 97 1014.5
20260831012629 15 190 0.0 0.0 0.00 0.00 0.00 97 1014.6
20260831012529 16 190 0.0 0.0 0.00 0.00 0.00 97 1014.6
20260831012430 16 190 0.0 0.0 0.00 0.00 0.00 97 1014.3
20260831012330 16 190 0.0 0.0 0.00 0.00 0.00 97 1014.3
20260831012214 16 190 0.0 0.0 0.00 0.00 0.00 97 1014.6
20260831012129 16 190 0.0 0.0 0.00 0.00 0.00 97 1014.6
20260831012029 16 190 0.0 0.0 0.00 0.00 0.00 97 1014.6
20260831011930 16 190 0.0 0.0 0.00 0.00 0.00 97 1014.7
20260831011830 16 190 0.0 0.0 0.00 0.00 0.00 97 1014.7
20260831011759 16 190 0.0 0.0 0.00 0.00 0.00 97 1014.7
20260831011749 16 190 0.0 0.0 0.00 0.00 0.00 97 1014.5
20260831011433 16 190 0.0 0.0 0.00 0.00 0.00 97 1014.3
20260831011418 16 190 0.0 0.0 0.00 0.00 0.00 97 1014.6
20260831011356 16 190 0.0 0.0 0.00 0.00 0.00 97 1014.6
20260831011340 16 189 0.0 0.0 0.00 0.00 0.00 97 1014.5
20260831011324 16 189 0.0 0.0 0.00 0.00 0.00 98 1014.5
20260831011308 16 189 0.0 0.0 0.00 0.00 0.00 98 1014.6
20260831011024 16 189 0.0 0.0 0.00 0.00 0.00 98 1014.6
20260831011008 16 188 0.0 0.0 0.00 0.00 0.00 98 1014.5
20260831010952 16 187 0.0 0.0 0.00 0.00 0.00 98 1014.5
20260831010716 16 190 0.0 0.0 0.00 0.00 0.00 98 1014.5
20260831010450 16 190 0.0 0.0 0.00 0.00 0.00 98 1014.6
20260831010435 16 191 0.0 0.0 0.00 0.00 0.00 98 1014.7
20260831010419 16 191 0.0 0.0 0.00 0.00 0.00 98 1014.7
20260831010404 16 191 0.0 0.0 0.00 0.00 0.00 98 1014.7
20260831010119 16 190 0.0 0.0 0.00 0.00 0.00 98 1014.9
20260831005842 16 190 0.0 0.0 0.00 0.00 0.00 98 1014.6
20260831005605 16 190 0.0 0.0 0.00 0.00 0.00 97 1014.9
20260831005338 16 190 0.0 0.0 0.00 0.00 0.00 98 1014.8
20260831005018 16 190 0.0 0.0 0.00 0.00 0.00 97 1014.7
20260831004959 16 190 0.0 0.0 0.00 0.00 0.00 97 1014.7
20260831004944 16 190 0.0 0.0 0.00 0.00 0.00 97 1014.8
20260831004715 16 190 0.0 0.0 0.00 0.00 0.00 97 1014.7
20260831004259 16 189 0.0 1.6 0.00 0.00 0.00 97 1014.9
20260831004214 16 190 0.0 1.6 0.00 0.00 0.00 97 1014.9
20260831004113 16 190 0.0 1.6 0.00 0.00 0.00 97 1015.0
20260831004014 16 190 0.0 0.0 0.00 0.00 0.00 97 1015.0
20260831003913 16 191 0.0 0.0 0.00 0.00 0.00 97 1014.9
20260831003813 16 191 0.0 0.0 0.00 0.00 0.00 97 1014.8
20260831003757 16 191 0.0 0.0 0.00 0.00 0.00 97 1014.8
20260831003714 16 191 0.0 0.0 0.00 0.00 0.00 97 1015.1
20260831003613 16 191 0.0 0.0 0.00 0.00 0.00 97 1014.9
20260831003513 16 191 0.0 0.0 0.00 0.00 0.00 97 1014.8
20260831003413 16 191 0.0 0.0 0.00 0.00 0.00 97 1014.7
20260831003313 16 191 0.0 0.0 0.00 0.00 0.00 97 1014.8
20260831003258 16 191 0.0 0.0 0.00 0.00 0.00 97 1014.8
20260831003213 16 191 0.0 0.0 0.00 0.00 0.00 97 1015.1
20260831003113 16 191 0.0 0.0 0.00 0.00 0.00 97 1014.9
20260831003013 16 191 0.0 0.0 0.00 0.00 0.00 97 1014.8
20260831002913 16 191 0.0 0.0 0.00 0.00 0.00 97 1014.9
20260831002814 16 191 0.0 0.0 0.00 0.00 0.00 96 1015.0
20260831002757 16 191 0.0 0.0 0.00 0.00 0.00 96 1015.0
20260831002712 16 191 0.0 0.0 0.00 0.00 0.00 97 1014.9
20260831002613 16 191 0.0 0.0 0.00 0.00 0.00 96 1015.0
20260831002513 16 191 0.0 0.0 0.00 0.00 0.00 96 1015.0
20260831002413 16 191 0.0 0.0 0.00 0.00 0.00 96 1014.9
20260831002312 16 191 0.0 0.0 0.00 0.00 0.00 96 1014.7
20260831002248 16 191 0.0 0.0 0.00 0.00 0.00 96 1014.7
20260831002232 16 191 0.0 0.0 0.00 0.00 0.00 96 1014.8
20260831001952 16 191 0.0 0.0 0.00 0.00 0.00 96 1015.1
20260831001948 16 190 0.0 0.0 0.00 0.00 0.00 96 1014.8
20260831001943 16 191 0.0 0.0 0.00 0.00 0.00 95 1014.8
20260831001936 16 191 0.0 0.0 0.00 0.00 0.00 96 1014.9
20260831001920 16 191 0.0 0.0 0.00 0.00 0.00 96 1014.7
20260831001908 16 191 0.0 0.0 0.00 0.00 0.00 96 1014.7
20260831001855 16 191 0.0 0.0 0.00 0.00 0.00 96 1015.1
20260831001840 16 191 0.0 0.0 0.00 0.00 0.00 96 1015.1
20260831001826 16 191 0.0 0.0 0.00 0.00 0.00 96 1015.1
20260831001810 16 191 0.0 0.0 0.00 0.00 0.00 96 1015.0
20260831001755 16 191 0.0 0.0 0.00 0.00 0.00 96 1015.1
20260831001530 16 191 0.0 0.0 0.00 0.00 0.00 96 1015.0
20260831001035 16 191 0.0 0.0 0.00 0.00 0.00 96 1015.0
20260831001020 16 191 0.0 0.0 0.00 0.00 0.00 96 1014.9
20260831001008 16 191 0.0 0.0 0.00 0.00 0.00 96 1014.9
20260831000955 16 191 0.0 0.0 0.00 0.00 0.00 96 1015.0
20260831000941 16 191 0.0 0.0 0.00 0.00 0.00 96 1015.0
20260831000924 16 191 0.0 0.0 0.00 0.00 0.00 96 1015.0
20260831000909 16 191 0.0 0.0 0.00 0.00 0.00 96 1014.9
20260831000853 16 191 0.0 0.0 0.00 0.00 0.00 96 1014.9
20260831000841 16 191 0.0 0.0 0.00 0.00 0.00 96 1014.9
20260831000350 16 191 0.0 0.0 0.00 0.00 0.00 96 1014.9
20260831000334 16 191 0.0 0.0 0.00 0.00 0.00 96 1014.9
20260831000319 16 191 0.0 0.0 0.00 0.00 0.00 96 1014.9
20260831000307 16 191 0.0 0.0 0.00 0.00 0.00 96 1014.9
20260830235814 16 191 0.0 0.0 0.00 0.00 0.00 96 1014.9
20260830235759 16 190 0.0 0.0 0.00 0.00 0.00 96 1015.1
20260830235742 16 190 0.0 0.0 0.00 0.00 0.00 96 1014.8
20260830235515 16 191 0.0 0.0 0.00 0.00 0.00 96 1015.0
20260830235239 16 191 0.0 0.0 0.00 0.00 0.00 96 1014.7
20260830235224 16 191 0.0 0.0 0.00 0.00 0.00 96 1014.8
20260830234954 16 191 0.0 0.0 0.00 0.00 0.00 96 1015.0
20260830234721 16 191 0.0 0.0 0.00 0.00 0.00 95 1014.9
20260830234707 16 191 0.0 0.0 0.00 0.00 0.00 95 1014.8
20260830234652 16 191 0.0 0.0 0.00 0.00 0.00 95 1014.9
20260830234635 16 191 0.0 0.0 0.00 0.00 0.00 95 1014.8
20260830234408 16 190 0.0 0.0 0.00 0.00 0.00 95 1014.9
20260830234133 16 190 0.0 0.0 0.00 0.00 0.00 94 1014.8
20260830233813 17 190 0.0 0.0 0.00 0.00 0.00 94 1015.0
20260830233758 17 190 0.0 0.0 0.00 0.00 0.00 94 1015.0
20260830233713 17 190 0.0 0.0 0.00 0.00 0.00 94 1014.8
20260830233614 17 190 0.0 0.0 0.00 0.00 0.00 94 1014.8
20260830233513 17 191 0.0 0.0 0.00 0.00 0.00 93 1014.8
20260830233456 17 191 0.0 0.0 0.00 0.00 0.00 93 1014.8
20260830233441 17 191 0.0 0.0 0.00 0.00 0.00 93 1015.0
20260830233429 17 191 0.0 0.0 0.00 0.00 0.00 93 1015.0
20260830233114 17 191 0.0 0.0 0.00 0.00 0.00 93 1015.1
20260830233012 17 191 0.0 0.0 0.00 0.00 0.00 93 1014.9
20260830232913 17 191 0.0 0.0 0.00 0.00 0.00 93 1014.8
20260830232853 17 191 0.0 0.0 0.00 0.00 0.00 93 1015.0
20260830232845 17 191 0.0 0.0 0.00 0.00 0.00 93 1014.8
20260830232834 17 191 0.0 0.0 0.00 0.00 0.00 93 1014.8
20260830232821 17 191 0.0 0.0 0.00 0.00 0.00 93 1015.0
20260830232805 17 191 0.0 0.0 0.00 0.00 0.00 93 1014.9
20260830232750 17 191 0.0 0.0 0.00 0.00 0.00 93 1014.9
20260830232513 17 191 0.0 0.0 0.00 0.00 0.00 93 1015.0
20260830232201 17 191 0.0 0.0 0.00 0.00 0.00 93 1015.1
20260830232100 17 191 0.0 0.0 0.00 0.00 0.00 93 1014.9
20260830232003 17 191 0.0 0.0 0.00 0.00 0.00 93 1015.1
20260830231901 17 191 0.0 0.0 0.00 0.00 0.00 93 1015.1
20260830231746 17 191 0.0 0.0 0.00 0.00 0.00 93 1014.8
20260830231701 17 191 0.0 0.0 0.00 0.00 0.00 93 1014.7
20260830231603 17 191 0.0 0.0 0.00 0.00 0.00 93 1015.0
20260830231545 17 191 0.0 0.0 0.00 0.00 0.00 92 1014.9
20260830231529 17 191 0.0 0.0 0.00 0.00 0.00 92 1015.0
20260830231502 17 191 0.0 0.0 0.00 0.00 0.00 92 1014.8
20260830231439 17 191 0.0 0.0 0.00 0.00 0.00 92 1014.9
20260830231425 17 191 0.0 0.0 0.00 0.00 0.00 92 1014.8
20260830231409 17 191 0.0 0.0 0.00 0.00 0.00 92 1015.0
20260830230918 17 191 0.0 0.0 0.00 0.00 0.00 92 1014.9
20260830230601 17 191 0.0 0.0 0.00 0.00 0.00 92 1014.9
20260830230501 17 191 0.0 0.0 0.00 0.00 0.00 92 1015.0
20260830230403 17 191 0.0 0.0 0.00 0.00 0.00 92 1014.8
20260830230245 17 191 0.0 0.0 0.00 0.00 0.00 92 1014.8
20260830230203 17 191 0.0 0.0 0.00 0.00 0.00 92 1014.8
20260830230137 17 191 0.0 0.0 0.00 0.00 0.00 92 1014.9
20260830230121 17 191 0.0 0.0 0.00 0.00 0.00 92 1014.9
20260830225749 17 191 0.0 0.0 0.00 0.00 0.00 92 1014.8
20260830225737 17 191 0.0 0.0 0.00 0.00 0.00 91 1015.3
20260830225721 17 191 0.0 0.0 0.00 0.00 0.00 91 1014.9
20260830225401 17 191 0.0 0.0 0.00 0.00 0.00 91 1015.0
20260830225246 17 191 0.0 0.0 0.00 0.00 0.00 91 1014.9
20260830225200 17 190 0.0 0.0 0.00 0.00 0.00 91 1015.0
20260830225134 17 190 0.0 0.0 0.00 0.00 0.00 90 1015.0
20260830225125 17 190 0.0 0.0 0.00 0.00 0.00 91 1015.0
20260830225110 17 190 0.0 0.0 0.00 0.00 0.00 91 1015.0
20260830225055 17 190 0.0 0.0 0.00 0.00 0.00 91 1014.8
20260830225027 17 190 0.0 0.0 0.00 0.00 0.00 91 1014.9
20260830225015 17 190 0.0 0.0 0.00 0.00 0.00 91 1015.0
20260830224517 17 190 0.0 0.0 0.00 0.00 0.00 90 1014.8
20260830224501 17 190 0.0 0.0 0.00 0.00 0.00 90 1015.0
20260830224200 17 190 0.0 0.0 0.00 0.00 0.00 90 1014.9
20260830224101 17 190 0.0 0.0 0.00 0.00 0.00 90 1014.9
20260830224001 17 191 0.0 0.0 0.00 0.00 0.00 90 1015.2
20260830223903 17 191 0.0 0.0 0.00 0.00 0.00 90 1015.0
20260830223747 17 191 0.0 0.0 0.00 0.00 0.00 90 1015.0
20260830223700 17 191 0.0 0.0 0.00 0.00 0.00 90 1015.1
20260830223601 17 190 0.0 0.0 0.00 0.00 0.00 89 1014.9
20260830223501 17 191 0.0 0.0 0.00 0.00 0.00 89 1015.0
20260830223401 17 191 0.0 0.0 0.00 0.00 0.00 89 1014.8
20260830223245 18 191 0.0 0.0 0.00 0.00 0.00 89 1015.2
20260830223201 18 191 0.0 0.0 0.00 0.00 0.00 89 1015.2
20260830223100 18 191 0.0 0.0 0.00 0.00 0.00 88 1014.9
20260830223002 18 190 0.0 0.0 0.00 0.00 0.00 88 1015.0
20260830222946 18 190 0.0 0.0 0.00 0.00 0.00 87 1015.0
20260830222918 18 191 0.0 0.0 0.00 0.00 0.00 87 1015.0
20260830222602 18 191 0.0 0.0 0.00 0.00 0.00 87 1015.3
20260830222500 18 191 0.0 0.0 0.00 0.00 0.00 87 1015.1
20260830222401 18 191 0.0 0.0 0.00 0.00 0.00 87 1015.1
20260830222301 18 191 0.0 0.0 0.00 0.00 0.00 86 1015.1
20260830222246 18 190 0.0 0.0 0.00 0.00 0.00 86 1015.1
20260830222201 18 191 0.0 0.0 0.00 0.00 0.00 86 1015.0
20260830222102 18 191 0.0 0.0 0.00 0.00 0.00 85 1015.3
20260830222046 18 191 0.0 1.6 0.00 0.00 0.00 84 1015.0
20260830222036 18 191 0.0 0.0 0.00 0.00 0.00 85 1015.0
20260830222021 18 191 0.0 0.0 0.00 0.00 0.00 84 1015.0
20260830222005 18 191 0.0 1.6 0.00 0.00 0.00 84 1015.0
20260830221742 18 185 1.6 1.6 0.00 0.00 0.00 85 1015.0
20260830221732 18 190 0.0 1.6 0.00 0.00 0.00 84 1015.2
20260830221716 18 190 0.0 1.6 0.00 0.00 0.00 84 1015.0
20260830221700 18 190 0.0 1.6 0.00 0.00 0.00 84 1014.9
20260830221412 18 189 0.0 1.6 0.00 0.00 0.00 84 1015.2
20260830221402 18 188 0.0 1.6 0.00 0.00 0.00 84 1015.2
20260830221345 18 188 0.0 1.6 0.00 0.00 0.00 84 1015.1
20260830221329 18 186 0.0 1.6 0.00 0.00 0.00 84 1015.0
20260830221313 18 185 0.0 1.6 0.00 0.00 0.00 84 1015.1
20260830221258 18 185 1.6 1.6 0.00 0.00 0.00 85 1015.0